GFSMA_sfc_thetae_072.txt.gz
Theta_e
336 337 335 336 336 336 336 334 333 332 332 332 332 330 329 330 332 332 330 344 350 350 353 355 354 352 352 352 351 351 350 349 348 346 346 347 347 346 346 345 344 344 342
336 334 336 336 335 336 336 336 334 331 331 331 332 332 331 331 332 331 331 332 349 348 350 353 354 354 353 353 353 352 350 349 348 346 346 346 346 346 345 345 345 344 343
335 338 337 338 338 338 337 336 334 334 331 333 332 333 333 333 333 333 332 332 337 348 348 350 353 355 354 354 354 353 351 349 347 346 346 345 345 346 346 345 345 345 344
337 334 341 340 340 341 339 336 336 334 333 332 330 330 330 331 333 334 333 332 332 337 345 349 350 352 353 354 354 353 353 346 346 345 344 344 345 345 345 346 345 344 344
346 340 338 341 341 339 338 337 335 333 331 331 330 330 330 332 334 337 334 333 332 334 335 341 347 348 349 352 353 353 352 346 345 344 344 343 344 345 345 345 345 344 343
344 346 344 341 340 339 338 335 335 335 332 330 333 334 333 334 336 336 337 336 335 336 337 336 337 343 347 349 350 351 350 349 346 345 344 343 342 343 344 344 345 344 344
345 345 345 343 339 337 337 335 333 332 331 335 332 331 332 335 335 336 337 335 338 340 338 338 337 337 338 346 346 348 349 349 347 345 343 341 342 343 343 344 344 344 343
348 345 343 341 340 339 338 335 332 331 331 333 327 328 328 326 331 336 337 338 338 340 341 340 338 338 337 337 340 345 347 348 349 346 343 340 341 342 343 343 343 344 344
344 347 345 343 341 340 339 336 334 330 329 331 333 328 322 317 322 328 331 336 338 338 339 339 338 339 339 338 340 341 345 345 347 346 343 340 341 342 342 342 342 342 342
339 342 344 344 343 341 340 337 337 334 329 330 333 335 331 323 321 319 329 332 338 338 338 338 339 340 340 340 341 342 339 342 345 346 344 343 343 344 342 341 341 341 341
339 340 340 342 343 341 340 338 335 333 332 333 332 331 332 333 331 325 320 318 330 336 338 339 339 339 340 339 337 338 336 336 338 340 340 340 343 343 342 342 341 341 341
335 338 338 337 339 339 338 338 336 333 333 335 336 335 332 327 324 321 317 317 321 330 336 338 337 336 337 339 339 338 334 332 331 332 332 336 338 341 341 342 341 341 341
330 333 337 337 337 338 340 338 335 334 335 336 337 336 337 334 324 323 324 323 327 329 330 334 337 335 336 335 336 337 336 331 328 327 328 330 332 334 336 338 339 341 341
327 332 335 337 338 339 339 338 338 338 337 336 336 337 337 338 336 332 331 328 323 323 324 327 329 332 332 331 334 333 332 328 326 324 324 325 327 328 330 332 334 336 336
325 325 329 332 331 331 333 334 334 334 335 335 337 336 337 340 341 339 336 333 330 322 320 324 325 328 331 331 331 331 329 328 327 324 323 322 323 324 326 327 328 329 330
321 322 325 332 332 333 332 334 336 337 329 331 336 337 338 340 344 341 338 337 330 328 322 323 325 326 328 330 332 329 330 328 326 323 323 322 321 321 323 323 324 326 327
321 323 325 327 329 330 333 336 337 336 333 331 335 336 337 339 342 342 339 332 328 324 321 322 324 326 324 325 326 326 328 326 325 324 323 321 319 319 320 321 321 321 323
322 322 324 326 327 330 330 335 337 335 333 331 335 339 341 345 341 343 336 332 327 326 323 320 322 324 323 324 324 324 327 331 326 321 319 317 314 313 314 314 315 316 316
321 320 322 322 323 324 326 330 333 337 343 342 342 343 343 343 342 339 335 331 328 328 327 322 321 323 322 322 321 321 322 321 324 322 318 316 315 314 315 314 315 315 315
319 322 322 324 325 325 326 327 328 333 338 343 344 344 345 343 341 337 334 333 328 326 325 324 322 318 319 320 320 317 317 318 317 322 320 318 317 316 314 315 316 316 312
315 319 322 321 322 324 326 326 326 327 334 336 339 342 343 341 333 332 334 330 326 323 323 322 318 316 317 316 317 317 316 317 318 318 320 320 321 321 319 315 321 320 312
310 311 313 318 318 321 314 312 316 324 330 336 337 342 343 328 328 320 321 321 325 324 321 319 317 316 315 316 317 317 315 314 316 321 322 322 324 321 322 322 316 312 308
311 313 315 318 319 321 311 308 310 320 323 332 337 340 335 339 329 330 316 317 316 313 319 322 319 317 316 318 318 316 315 315 314 316 317 318 324 321 322 323 312 308 306
307 310 313 316 316 317 308 306 309 320 324 329 336 337 333 328 329 328 326 324 322 322 321 325 323 321 320 321 322 321 318 316 318 320 316 310 319 320 323 321 309 306 305
307 307 310 311 312 316 309 307 309 322 324 329 335 334 333 329 311 309 325 322 319 317 308 306 307 305 305 306 315 321 317 318 316 318 317 314 318 319 322 321 318 307 304
306 308 313 316 314 318 310 302 307 320 324 329 328 328 312 324 304 306 324 321 317 316 317 316 318 315 311 311 307 321 323 319 315 316 319 318 316 317 313 317 320 315 311

GFSMA_sfc_thetae_075.txt.gz
Theta_e
335 334 332 332 333 333 334 333 332 332 332 332 333 331 330 328 328 330 330 340 345 349 352 356 356 354 353 351 350 351 350 349 348 347 346 346 347 347 345 345 345 344 343
332 332 333 332 333 334 333 334 333 331 330 330 330 331 330 329 329 329 330 330 342 349 351 353 355 354 354 352 351 351 350 349 349 347 346 345 345 347 345 345 345 344 343
334 332 332 333 334 334 334 334 333 332 330 330 330 331 331 332 332 332 332 330 333 345 349 350 352 354 355 354 353 352 351 350 349 347 345 344 344 344 346 345 345 345 344
337 334 333 334 337 336 336 335 335 333 332 332 331 331 331 330 330 331 332 332 331 333 344 349 350 352 353 354 354 354 351 350 349 346 344 344 343 343 344 345 346 345 344
339 334 335 337 337 337 337 337 335 334 331 330 330 329 329 329 330 334 334 335 332 333 333 341 348 349 350 352 353 354 351 350 347 345 345 344 343 343 343 344 345 345 344
342 338 335 334 338 337 336 335 334 333 332 330 331 332 331 333 333 333 336 337 334 334 334 334 335 341 348 349 351 352 351 349 346 346 344 343 343 343 343 343 345 345 345
342 342 341 340 338 338 337 337 334 333 331 333 330 329 330 332 332 334 333 333 335 337 336 335 335 335 338 347 347 349 349 350 348 346 343 341 342 342 342 342 343 344 344
341 342 342 341 341 338 336 335 332 330 330 333 327 328 324 327 326 330 332 335 336 337 339 338 337 336 336 336 338 346 348 349 348 347 343 340 341 342 342 342 342 342 343
346 343 342 341 341 340 339 337 334 331 330 330 330 327 319 318 318 323 328 331 332 336 337 338 337 338 338 337 339 342 345 346 347 348 345 342 341 342 342 341 340 341 342
338 344 344 343 341 340 338 337 337 335 331 330 331 333 330 324 322 320 324 328 330 333 334 336 338 339 339 337 340 341 339 341 345 347 346 344 344 344 343 342 341 340 341
336 337 339 337 340 340 340 338 335 334 331 330 329 329 331 331 326 325 323 323 322 327 334 335 336 338 339 339 337 337 337 337 337 339 341 342 343 343 343 343 342 340 340
331 334 336 336 337 335 332 332 338 335 332 331 331 331 330 327 325 327 325 326 321 325 330 334 336 337 337 337 340 338 334 333 331 332 333 335 338 341 340 342 342 342 340
327 329 332 333 333 335 337 338 338 336 333 332 333 333 334 334 332 325 321 322 320 327 330 333 334 335 336 335 337 338 336 330 327 327 327 329 331 333 336 337 339 339 340
323 325 328 331 334 336 337 337 336 335 334 334 334 335 335 336 335 330 327 324 324 327 328 326 329 332 333 333 333 333 332 329 325 324 323 325 327 328 330 331 332 334 335
323 323 322 325 329 331 334 334 333 334 335 336 335 335 334 334 336 336 333 331 329 323 325 325 326 328 329 330 331 331 330 328 327 323 323 322 323 323 324 325 327 328 330
317 319 319 322 326 328 328 328 330 332 332 332 330 328 330 334 334 338 336 335 332 330 327 326 326 326 327 330 331 328 329 328 325 324 324 322 320 320 321 322 323 325 326
315 317 320 321 323 324 327 329 332 333 334 334 333 330 331 333 332 336 339 336 335 332 328 330 323 324 324 324 326 326 327 326 324 322 323 321 318 317 318 320 320 322 322
317 319 320 322 323 324 324 324 326 330 333 331 332 332 332 334 333 336 338 337 333 329 328 325 322 323 322 321 323 324 325 329 325 321 318 317 314 312 313 314 314 315 315
315 317 319 320 321 322 321 322 325 327 328 331 336 338 336 336 337 340 341 336 332 329 327 322 321 321 320 320 321 321 320 320 325 323 318 316 315 314 313 314 315 315 314
312 314 317 319 321 322 323 323 323 323 327 329 333 335 341 341 340 339 340 336 328 327 325 322 319 319 319 319 319 317 316 317 317 321 320 318 316 316 315 315 317 318 314
308 309 310 312 317 320 320 320 321 321 322 323 327 333 337 337 332 334 340 335 328 326 321 319 317 316 316 316 317 316 315 315 315 317 319 320 321 321 319 316 321 320 314
305 305 306 307 307 309 306 309 314 318 320 321 322 327 333 330 330 320 319 321 327 326 323 321 317 316 316 316 315 315 313 312 314 319 318 318 322 321 322 322 317 312 310
303 304 305 308 310 312 306 305 308 316 317 317 320 323 328 334 328 338 320 314 315 315 319 325 319 318 316 317 317 314 313 313 314 315 317 314 323 320 323 320 313 310 307
302 303 305 307 308 313 307 304 305 312 314 318 321 324 326 331 334 333 330 326 325 323 321 324 323 321 321 319 320 318 317 316 316 316 316 313 313 316 322 322 310 308 305
301 302 305 306 307 309 304 302 304 315 318 320 323 326 329 333 317 305 326 324 321 319 311 306 308 306 304 304 314 319 315 316 315 317 319 313 314 318 320 320 317 307 304
303 305 305 306 307 310 306 300 303 316 316 319 322 325 313 320 303 303 325 323 319 318 318 317 317 312 310 307 306 320 319 318 317 316 320 316 316 317 313 318 320 315 313

GFSMA_sfc_thetae_078.txt.gz
Theta_e
338 337 336 334 334 335 335 335 335 335 335 335 335 335 334 333 333 333 334 339 344 346 348 353 356 357 355 352 351 350 351 350 348 347 346 346 346 347 345 345 346 344 344
337 335 334 333 332 334 335 335 335 334 334 334 334 334 334 334 335 335 335 336 340 343 345 352 356 358 356 355 352 351 350 349 349 348 347 345 345 345 344 344 346 345 343
337 335 335 333 333 335 336 336 335 335 334 334 334 335 335 336 335 337 336 337 337 340 344 350 352 355 356 356 355 353 351 349 349 348 347 346 345 344 345 344 344 346 344
340 335 333 334 336 336 336 336 335 335 335 335 336 336 336 336 336 336 336 336 337 337 339 345 350 352 354 355 356 355 352 349 348 348 347 346 345 344 344 345 345 345 345
343 338 336 334 336 337 337 337 337 337 337 335 334 335 335 334 335 336 338 339 341 340 339 339 345 349 351 353 355 355 353 350 347 347 346 346 345 344 343 343 344 345 345
344 338 336 335 338 336 336 338 338 337 336 334 334 334 335 336 337 337 338 339 341 341 341 340 339 342 347 350 352 354 354 352 348 346 345 344 343 344 344 343 343 344 345
342 341 338 335 336 336 338 339 338 337 336 336 334 333 333 335 336 336 337 338 339 341 343 343 341 339 342 343 347 350 352 352 351 347 343 342 342 343 343 343 342 342 343
341 341 341 340 339 337 339 339 337 334 335 335 333 330 325 328 329 332 336 339 340 342 342 344 343 342 342 343 343 344 350 350 351 349 344 341 342 343 343 342 342 342 342
343 342 341 342 342 343 340 338 337 334 334 334 334 332 325 320 324 329 331 334 339 340 342 341 343 344 344 344 342 342 344 346 350 350 345 342 343 344 344 343 342 341 341
341 344 342 340 341 341 338 339 340 338 334 333 334 335 332 329 325 322 328 332 337 336 339 339 340 343 345 346 344 342 339 340 346 348 348 347 346 346 344 343 343 341 341
337 339 342 341 341 341 341 339 337 336 334 334 332 332 331 330 330 327 324 327 331 333 334 337 337 340 344 346 346 341 337 336 338 341 342 344 345 345 344 344 342 342 342
334 336 337 337 338 337 336 335 337 335 330 330 333 334 332 330 329 328 327 328 328 330 335 336 338 338 341 345 344 339 334 333 332 332 334 337 339 341 342 342 342 343 342
331 333 336 336 337 338 337 335 332 331 332 331 330 332 334 334 334 332 330 330 327 330 336 335 334 337 339 340 342 339 337 331 328 326 327 329 332 334 336 337 338 339 341
326 330 330 333 336 337 338 339 340 337 335 334 335 334 334 335 336 333 330 326 325 329 331 332 334 332 334 337 339 335 340 329 326 324 324 325 327 329 330 331 332 333 333
322 327 330 331 333 335 337 338 337 337 335 335 334 335 335 336 338 337 333 332 331 326 327 328 331 338 335 335 337 338 338 330 328 324 323 323 324 324 324 325 325 326 328
321 322 322 325 329 331 332 333 333 334 333 334 334 334 333 334 334 336 336 335 334 331 326 331 333 334 334 334 334 336 335 328 325 324 324 323 320 320 321 321 322 324 326
318 319 321 322 324 326 330 330 330 331 332 334 336 334 331 330 330 332 338 338 336 334 329 333 333 332 330 331 333 333 334 334 332 323 323 318 315 314 316 318 320 320 320
318 320 322 323 324 325 325 325 326 329 330 331 334 334 334 334 332 333 334 335 338 334 333 330 332 329 328 329 330 330 331 333 332 321 319 317 314 312 312 313 314 314 314
317 319 321 322 322 323 324 324 325 326 326 327 329 332 335 337 334 333 336 336 335 336 332 331 331 328 327 327 327 328 328 328 327 323 318 316 314 313 313 313 313 313 312
314 316 318 319 320 321 323 324 325 325 324 326 329 331 332 333 335 337 339 341 339 334 331 329 327 326 325 326 326 325 325 326 326 325 321 319 317 316 315 315 316 317 313
311 312 312 313 316 318 318 320 321 322 322 323 325 328 330 330 326 328 336 339 340 334 330 326 324 324 323 324 324 324 325 324 325 324 323 323 324 325 323 317 321 319 314
308 308 309 310 310 310 304 304 309 315 318 322 322 324 326 323 325 318 317 318 328 335 329 326 324 323 322 324 323 323 323 322 321 325 322 321 326 326 326 325 316 313 311
306 306 307 309 310 311 304 303 305 313 315 319 321 321 322 325 323 331 323 315 313 312 317 329 324 322 322 325 324 322 322 323 323 324 326 324 324 326 328 327 312 309 308
305 305 307 308 309 310 303 301 303 313 317 318 319 321 323 325 327 328 333 334 327 324 325 327 328 327 328 327 329 328 326 324 324 324 326 321 324 325 328 328 310 307 306
304 305 307 308 308 309 302 301 303 312 314 317 322 325 326 327 315 305 326 330 325 323 310 307 308 306 303 305 317 326 323 323 319 321 324 323 322 322 324 325 325 308 305
305 306 306 307 306 308 301 300 303 312 315 320 322 323 308 315 307 303 323 326 323 323 320 318 317 313 311 310 306 330 326 323 322 318 323 318 318 321 317 324 324 321 319

GFSMA_sfc_thetae_084.txt.gz
Theta_e
349 346 345 344 344 342 342 342 340 341 345 349 348 347 345 346 348 347 347 348 346 346 347 349 351 356 358 357 356 355 353 352 350 349 348 347 347 347 346 346 347 347 347
352 346 347 345 343 343 342 341 340 341 347 349 350 352 351 350 350 351 348 350 348 346 346 347 350 352 358 359 357 355 353 351 351 350 348 347 347 347 347 346 347 347 347
353 352 345 344 342 345 347 345 344 344 346 347 350 351 352 353 351 352 351 350 349 346 346 346 347 350 355 359 359 357 353 351 350 350 349 348 347 347 347 347 347 347 347
352 350 344 345 344 345 343 340 340 342 346 346 347 349 349 350 350 352 351 351 348 348 349 348 348 349 351 353 358 358 356 352 350 349 348 349 348 347 347 347 347 346 346
352 350 345 344 350 343 342 341 341 344 343 346 345 348 350 349 350 346 350 352 352 350 351 349 347 346 348 351 353 357 356 354 351 349 349 349 348 348 347 347 346 346 345
354 354 348 350 350 344 341 341 346 342 343 343 342 343 350 349 349 349 349 347 348 351 354 354 352 349 347 348 350 353 356 355 352 350 349 347 347 347 347 347 346 345 345
354 355 351 352 353 349 350 350 345 345 338 345 343 344 346 349 350 347 347 346 347 349 351 352 352 348 347 347 347 350 353 355 354 352 348 346 345 346 346 346 346 345 344
354 355 356 353 356 349 353 352 350 340 339 344 342 341 333 338 339 344 344 345 347 345 346 349 349 350 349 347 349 347 348 351 354 353 350 346 345 345 345 345 345 345 344
353 354 357 354 355 352 346 353 350 347 334 344 352 342 335 330 335 342 345 343 348 344 345 349 351 351 353 348 347 350 348 347 350 352 351 347 346 346 345 345 344 344 344
350 351 355 352 352 349 349 348 348 348 346 343 345 346 344 340 333 333 341 342 345 344 347 344 345 349 351 346 348 349 344 343 347 349 349 350 349 348 346 344 343 344 344
352 349 351 352 352 350 353 351 351 347 344 338 335 336 334 333 339 335 326 331 339 339 342 342 344 344 349 349 347 348 341 339 340 342 344 347 349 349 347 346 345 344 344
349 351 350 350 352 349 350 349 346 344 338 336 333 331 330 329 328 331 329 333 333 336 338 342 344 342 344 345 346 341 336 334 333 333 336 339 344 345 345 346 345 345 345
347 354 352 352 350 351 348 345 344 343 338 336 334 329 331 329 331 331 335 329 332 333 334 336 340 342 344 344 345 339 340 333 330 328 330 332 336 339 341 342 343 343 342
346 355 355 354 353 349 346 344 342 340 337 335 336 335 331 334 335 335 338 334 331 330 331 340 339 341 343 347 348 337 346 333 328 326 326 328 330 333 335 337 337 336 336
344 349 352 352 352 351 350 350 344 343 342 340 337 336 335 340 340 343 340 340 339 329 327 335 333 345 345 343 346 349 350 336 331 326 325 325 327 330 330 330 330 330 330
338 339 342 346 347 347 348 350 350 348 345 341 338 338 342 342 341 344 344 343 343 336 330 332 333 342 338 342 346 343 348 333 328 325 326 326 326 326 325 326 326 326 328
336 334 336 338 340 342 345 347 348 346 343 344 345 343 341 343 344 339 338 337 333 333 330 332 339 341 340 345 347 349 344 345 337 325 326 323 320 319 318 319 320 322 322
333 332 332 332 333 336 340 340 339 339 339 338 338 335 333 333 338 341 337 339 337 337 335 330 333 334 340 346 346 343 342 343 345 323 321 319 316 315 314 315 315 317 317
330 331 330 330 330 330 331 331 329 330 330 330 329 328 327 329 331 331 334 334 336 336 336 334 328 333 336 343 340 342 343 342 343 325 321 320 319 317 315 315 315 316 316
327 327 328 327 327 328 328 328 328 329 329 327 327 327 325 326 328 330 331 331 333 333 336 336 336 336 339 341 337 333 334 339 339 338 327 322 321 317 316 316 317 318 315
326 326 326 325 326 327 325 326 325 325 325 323 323 322 324 324 321 323 325 329 329 327 328 330 334 337 334 332 330 335 336 338 338 340 339 336 336 335 329 319 325 322 317
327 325 323 323 326 322 306 310 320 323 322 320 320 322 325 322 320 315 315 314 320 328 331 329 332 333 337 336 335 335 335 336 332 340 336 339 336 334 334 335 321 316 315
330 328 326 324 325 326 303 304 306 321 321 322 322 324 325 323 322 328 316 311 312 310 314 334 334 338 339 341 342 337 336 336 335 336 337 333 336 334 333 329 316 313 309
329 331 329 328 327 324 301 301 304 321 321 322 322 323 326 328 329 327 326 329 331 334 334 330 335 338 343 346 342 341 339 341 343 338 338 329 336 334 333 332 314 311 308
324 326 327 327 326 325 301 300 307 319 320 321 321 321 322 325 314 305 329 327 328 330 319 309 309 305 306 308 319 336 333 336 334 330 336 334 333 334 334 331 329 312 308
321 321 323 326 318 325 300 298 306 316 318 317 321 322 308 317 308 297 328 325 323 326 331 337 328 318 320 321 308 338 342 337 332 326 333 332 332 332 324 332 331 329 326

GFSMA_sfc_thetae_087.txt.gz
Theta_e
355 350 349 345 343 340 341 342 342 344 342 342 347 345 344 345 347 347 347 352 349 348 349 350 351 354 357 357 356 356 355 353 352 351 349 349 349 349 348 348 348 348 348
357 348 349 344 343 342 341 343 344 341 341 344 348 350 350 349 350 351 349 351 351 349 350 350 350 352 355 358 358 356 354 353 352 351 350 348 348 348 348 348 347 348 348
361 354 347 345 344 347 357 351 349 344 341 344 348 349 350 353 352 352 352 351 350 350 350 350 351 351 352 355 359 358 355 352 352 350 350 349 348 347 347 348 348 348 347
359 357 346 347 347 347 344 344 343 338 338 341 347 345 349 353 351 352 351 351 349 350 348 350 351 351 351 351 355 359 357 353 350 349 349 349 349 348 348 348 348 348 347
353 353 349 349 355 346 343 343 342 343 341 344 343 345 349 347 350 346 348 351 353 352 351 349 351 349 350 350 352 357 358 355 351 350 349 349 349 349 348 348 348 348 347
353 352 349 346 351 345 344 344 347 344 341 340 338 340 348 347 348 348 348 348 349 351 357 359 354 350 349 350 351 354 357 356 354 351 349 348 348 348 348 348 348 347 347
357 354 351 351 352 347 346 351 346 348 341 347 338 341 342 353 353 349 348 345 348 349 356 359 353 349 347 349 349 351 354 356 356 354 349 346 347 348 348 347 347 347 346
359 357 356 350 353 348 352 353 350 342 340 345 337 338 332 342 344 345 345 345 348 348 347 351 354 355 353 350 352 348 351 354 354 354 351 346 346 347 347 346 346 346 345
357 358 357 356 356 353 348 355 356 350 341 343 347 339 334 328 336 344 348 347 351 347 352 350 353 350 353 353 349 349 348 349 353 354 351 348 348 348 348 346 345 345 345
356 357 358 358 358 356 353 356 355 353 350 342 348 350 346 342 334 330 346 345 351 350 353 346 347 351 353 350 351 349 343 344 349 351 351 351 351 350 349 347 345 344 344
357 355 357 359 358 355 356 356 355 353 349 343 345 344 340 335 337 331 325 332 338 339 341 342 345 345 350 350 347 347 340 339 340 342 345 347 350 350 350 348 346 345 345
356 356 355 357 358 355 355 354 355 355 350 349 346 342 336 330 330 330 329 329 329 332 332 331 338 340 345 349 347 340 337 334 332 333 335 340 344 347 348 348 347 346 346
351 353 356 356 353 357 357 357 355 353 350 344 343 338 337 335 334 332 327 326 325 328 331 335 340 343 336 349 348 340 340 334 330 329 330 332 336 339 343 345 345 346 346
351 358 356 358 356 355 353 352 348 348 347 341 343 341 337 335 336 333 331 327 326 329 330 334 338 337 344 345 344 339 346 333 331 328 326 328 331 334 336 339 341 340 339
342 353 355 357 355 353 354 354 348 348 348 348 346 346 340 336 335 335 335 335 335 326 329 334 335 350 343 343 342 345 344 340 332 329 327 327 328 331 333 335 335 334 333
349 350 354 355 354 355 354 355 349 348 346 343 343 346 344 340 339 339 339 344 341 336 328 337 337 345 346 343 343 346 347 335 332 329 328 327 327 330 331 329 329 329 329
347 346 346 347 348 350 353 351 351 348 347 346 348 345 343 344 340 342 344 344 338 336 331 332 336 343 346 344 341 347 348 348 344 327 327 326 325 326 326 324 324 325 325
340 336 338 337 338 339 345 343 343 343 342 342 344 344 342 343 344 345 345 341 336 340 335 333 336 337 340 343 344 345 343 345 345 329 323 321 319 319 317 316 317 319 319
334 332 331 331 332 333 335 338 338 339 339 340 340 339 337 338 338 337 340 336 336 337 337 333 332 336 337 339 339 341 346 346 348 327 321 320 318 319 318 316 316 317 318
330 329 330 329 328 329 332 333 334 336 335 334 333 331 329 328 331 336 335 339 335 332 332 332 332 333 336 343 342 338 337 340 339 338 329 325 322 317 316 317 317 318 316
328 327 328 329 329 330 327 330 331 332 333 329 328 324 327 324 320 321 324 333 336 328 322 323 325 329 330 337 335 337 334 339 340 345 341 337 334 330 325 318 325 321 318
327 328 325 326 329 324 310 313 328 331 327 325 323 322 323 321 320 314 313 313 319 328 328 319 321 324 335 334 338 338 336 336 326 342 344 338 342 339 336 335 319 315 315
336 333 329 328 328 330 305 307 315 329 329 327 325 325 324 321 322 325 314 311 312 310 313 329 332 333 334 338 341 339 341 339 330 345 341 338 342 338 336 326 316 316 311
332 332 333 331 328 326 303 304 309 331 329 327 326 325 327 326 326 327 329 327 327 333 333 327 332 338 341 342 344 343 342 340 336 338 336 330 341 338 335 331 311 312 307
328 331 329 333 332 328 300 300 309 325 324 324 323 324 324 324 311 306 327 324 325 329 321 311 310 307 307 305 313 332 338 325 325 330 337 337 337 336 338 333 324 313 311
318 322 325 330 325 332 298 299 310 316 324 320 326 325 309 316 306 300 326 326 324 324 325 329 330 326 316 324 310 333 335 327 326 329 338 333 334 334 328 336 329 326 324

GFSMA_sfc_thetae_093.txt.gz
Theta_e
346 344 343 341 341 339 336 331 331 331 329 328 329 331 332 333 334 336 337 352 349 350 353 355 355 355 356 355 354 354 354 354 353 351 349 349 349 349 350 349 349 348 348
347 345 341 340 339 338 336 331 332 330 329 331 331 332 335 339 338 338 339 342 349 349 351 354 356 356 357 357 355 354 353 353 353 351 350 349 348 348 349 349 349 348 347
344 346 343 341 341 338 335 332 330 334 332 333 333 335 337 341 341 343 344 342 343 349 350 352 354 356 357 357 357 356 353 352 352 351 350 349 348 348 348 349 349 348 347
346 344 343 342 340 339 335 334 331 333 336 333 330 333 341 342 342 342 343 343 344 344 348 351 352 354 355 357 357 357 356 352 351 350 349 349 349 348 347 348 348 348 347
347 345 345 342 340 338 336 338 333 333 333 330 331 332 336 340 341 346 344 344 342 344 342 346 350 350 352 354 356 357 356 354 352 351 350 349 349 348 348 347 348 348 347
344 347 347 342 339 339 336 335 334 334 333 332 332 332 336 338 341 341 343 343 343 344 342 342 344 346 349 352 354 355 357 356 353 352 351 349 348 348 347 347 347 347 348
345 344 348 343 341 338 337 334 331 331 330 333 331 329 332 338 337 342 341 341 340 340 342 345 342 340 342 348 349 351 355 357 356 353 349 348 348 348 348 347 347 347 347
348 345 345 345 342 341 336 336 335 332 332 331 330 327 323 326 335 339 340 340 339 338 341 343 346 343 343 342 342 347 351 355 357 355 351 347 347 348 348 348 347 347 346
348 348 346 344 343 341 338 336 336 333 330 333 332 327 323 319 328 336 338 338 337 336 340 340 340 342 340 339 342 345 347 348 352 354 351 348 348 348 347 347 347 346 346
348 347 345 344 342 342 339 337 337 335 332 329 330 333 334 330 325 324 334 336 338 339 338 337 338 339 341 340 345 346 343 342 346 347 348 350 350 350 348 346 346 346 346
348 347 347 344 342 341 341 339 336 337 334 330 329 330 332 330 330 325 322 328 330 333 337 338 336 332 331 334 335 337 339 337 337 339 340 344 347 348 347 347 348 346 347
344 346 346 346 344 343 340 340 338 336 337 334 334 332 332 330 325 324 321 321 324 326 331 332 330 328 328 331 334 336 336 334 332 332 332 335 338 342 344 347 349 350 348
340 341 344 343 346 345 344 344 340 339 338 337 336 337 335 333 328 325 323 320 319 320 322 326 327 328 332 333 333 338 338 331 330 329 329 330 332 335 338 342 346 347 347
340 341 342 343 343 345 346 344 343 343 340 342 339 338 337 335 330 328 324 319 314 317 321 321 329 329 328 331 336 339 337 331 329 327 327 328 329 331 333 336 339 341 342
338 339 333 334 338 342 343 334 325 324 338 342 341 340 337 335 333 327 325 323 318 313 315 322 325 330 331 336 336 337 336 334 333 330 328 327 327 328 329 331 333 335 334
328 322 324 325 328 328 328 330 327 324 322 333 340 337 333 332 330 329 327 326 325 320 316 324 326 329 331 334 336 337 336 333 332 329 328 327 327 326 327 328 331 330 329
318 319 322 324 325 323 326 321 322 324 322 322 334 334 332 332 332 330 330 328 328 328 324 325 327 328 327 330 333 334 335 334 337 329 328 326 324 324 325 328 328 327 327
318 320 323 325 325 324 324 320 321 322 320 320 332 333 334 335 331 331 330 329 329 329 327 324 323 324 326 326 328 329 331 337 336 331 326 324 323 323 324 324 322 323 320
317 317 323 323 324 324 323 322 323 321 321 324 330 333 334 334 332 331 329 328 328 329 327 324 324 324 324 324 325 327 329 330 336 331 323 321 318 318 320 319 318 318 316
317 315 317 322 322 323 321 319 320 319 321 325 333 336 332 332 329 328 329 328 326 325 322 320 316 317 319 320 324 322 323 325 326 332 327 324 321 319 318 317 318 318 316
319 322 322 319 317 317 320 319 319 321 325 327 332 333 331 329 325 324 323 321 318 318 316 312 309 307 307 309 312 320 321 323 324 327 326 325 324 323 320 317 319 318 315
314 321 319 321 316 318 314 309 316 317 323 329 326 321 318 317 314 312 313 312 313 312 312 311 309 306 305 307 314 318 319 318 315 326 325 327 327 325 326 321 316 313 312
307 316 319 319 319 317 309 306 309 322 328 321 318 315 316 317 315 314 310 309 309 308 310 308 305 308 310 314 319 317 317 319 318 322 326 324 330 328 330 328 315 310 310
304 311 315 317 317 317 309 307 309 325 320 319 317 315 318 317 317 319 319 316 314 314 312 310 309 311 313 317 319 322 321 321 322 323 326 321 326 325 324 322 312 309 308
303 308 315 316 315 315 308 305 316 320 318 317 319 318 317 316 306 307 316 315 316 316 317 312 311 308 305 303 308 320 321 321 316 317 323 322 323 323 322 320 314 309 307
303 306 311 313 313 314 309 303 315 318 316 317 316 316 311 314 301 303 313 314 313 314 317 315 313 308 303 311 304 318 325 323 316 314 324 322 322 323 320 322 316 312 310

GFSMA_sfc_thetae_096.txt.gz
Theta_e
345 346 344 343 343 341 339 335 334 332 330 328 325 325 325 328 329 330 331 346 351 351 354 356 355 355 355 354 353 353 353 353 353 351 349 349 348 349 350 349 349 348 347
346 345 344 342 341 340 339 334 331 330 328 326 324 326 327 329 331 332 336 340 350 349 351 354 356 356 356 356 354 353 352 351 353 352 350 349 349 348 349 349 349 348 347
347 346 342 342 342 340 337 334 330 328 326 328 327 326 328 331 335 337 337 336 342 348 348 351 354 356 357 357 356 355 353 351 352 351 350 349 349 348 348 349 349 349 347
350 345 344 341 341 339 336 334 331 327 328 327 327 330 331 333 337 339 340 342 339 341 346 350 352 354 356 357 357 357 355 352 351 350 350 349 349 348 348 348 348 348 347
350 347 344 344 340 339 336 333 329 325 325 330 331 330 331 335 338 341 340 341 342 343 342 346 350 350 353 355 357 357 356 353 351 350 350 349 349 349 348 348 348 348 347
345 345 345 342 341 338 337 332 332 330 328 329 332 331 329 332 337 338 342 343 342 341 341 341 341 345 349 352 354 356 357 356 352 351 350 349 349 349 348 348 348 347 347
344 342 344 343 341 339 338 335 334 333 331 329 327 326 328 331 332 335 340 342 342 343 341 341 340 341 343 348 349 351 355 357 357 354 349 347 347 349 348 348 348 347 347
343 342 341 342 343 341 339 335 334 330 331 331 328 323 320 324 330 337 338 340 340 340 339 340 341 341 339 340 344 348 352 355 356 355 350 346 347 348 349 347 346 346 346
345 344 344 342 343 343 340 337 335 334 330 328 330 324 319 317 321 332 336 339 338 336 337 339 341 343 341 339 341 344 347 347 352 354 351 347 348 348 347 346 345 346 346
340 344 345 344 343 344 342 340 338 336 333 329 328 331 326 323 320 319 329 333 336 336 334 336 338 339 339 338 340 343 341 341 345 348 348 348 347 347 347 346 346 345 346
336 341 342 343 343 342 342 342 339 335 335 334 331 328 328 329 327 321 320 327 329 332 336 335 336 336 336 334 333 334 335 336 337 339 339 340 342 344 346 345 345 345 346
328 333 339 341 340 341 341 342 340 338 335 335 333 331 329 327 327 323 319 322 326 326 329 333 332 331 329 330 333 334 332 331 331 332 332 334 337 340 342 344 345 346 349
325 328 333 338 340 340 341 342 339 338 336 335 334 332 332 330 330 330 323 319 321 322 321 325 327 327 329 327 330 334 335 331 329 327 327 329 331 334 336 338 341 344 347
323 326 330 334 339 340 339 338 339 339 338 336 335 334 332 332 332 330 329 321 315 315 317 319 325 325 328 330 331 333 334 331 327 326 326 326 327 329 330 333 335 337 340
324 326 328 331 334 336 337 336 335 336 332 327 325 325 323 322 334 333 331 327 323 312 314 319 321 327 327 330 334 335 335 332 330 327 325 325 325 325 327 328 329 331 332
321 321 322 324 326 329 329 329 329 330 329 328 328 326 323 323 323 325 328 325 323 318 314 319 322 327 329 331 333 334 333 331 329 327 327 325 323 323 323 325 326 328 329
318 318 319 321 323 325 324 321 322 324 320 321 324 322 323 323 322 326 329 326 324 322 319 319 323 326 326 326 328 333 333 331 330 327 328 325 322 321 321 322 324 325 324
317 317 318 319 321 324 323 320 320 322 317 317 321 321 320 321 326 328 329 326 326 326 323 319 321 323 325 326 326 324 327 333 331 330 324 322 321 320 322 321 320 319 318
312 316 317 317 319 320 323 322 319 321 318 320 321 322 323 323 325 327 330 327 326 328 326 324 321 322 323 321 321 322 324 326 332 330 322 319 317 318 318 317 316 316 314
307 310 316 317 318 321 322 323 322 320 319 322 321 320 320 322 324 327 329 327 326 326 323 322 319 316 316 316 318 317 317 321 323 329 325 321 317 317 316 316 317 317 314
305 307 310 316 317 319 320 321 319 318 316 317 320 322 322 325 326 327 329 325 325 321 319 315 310 307 305 305 306 314 315 318 320 321 321 323 322 320 319 316 319 318 313
304 305 308 311 317 320 310 308 311 317 319 321 321 325 329 325 321 317 317 317 320 317 313 310 307 305 304 303 309 314 317 315 314 320 320 321 323 322 326 323 316 314 310
301 302 305 311 314 317 307 305 308 314 315 316 320 324 323 326 318 318 311 310 309 308 311 309 303 302 305 309 314 315 314 316 316 320 322 317 325 323 328 326 314 309 309
298 302 305 309 314 318 307 302 305 311 313 315 321 319 317 314 313 312 311 310 310 309 309 309 307 308 312 315 316 317 317 317 319 319 322 315 324 324 323 321 308 308 306
298 297 300 303 310 315 304 303 307 314 314 317 320 319 317 317 306 306 317 316 314 315 312 307 305 305 303 305 310 316 313 317 316 313 319 317 317 321 320 316 312 306 304
297 299 301 302 307 312 303 303 305 312 312 317 318 317 310 314 300 303 313 313 311 311 314 312 310 306 302 305 303 316 318 318 319 317 317 319 320 322 317 319 312 310 308

GFSMA_sfc_thetae_102.txt.gz
Theta_e
345 345 345 344 344 344 343 341 339 338 335 334 332 329 328 326 325 326 329 336 342 345 347 352 356 357 355 353 352 352 352 352 352 352 351 349 349 349 350 350 349 349 348
345 344 344 344 343 344 343 342 339 337 335 333 332 330 329 327 327 327 328 332 341 343 347 351 355 358 358 357 355 353 352 351 351 351 351 350 349 349 350 350 349 349 348
345 344 343 343 343 343 343 340 339 337 333 332 331 330 329 328 327 327 330 332 336 342 346 351 353 355 358 359 358 355 352 351 351 350 350 350 349 349 349 350 350 350 349
348 344 344 343 345 344 341 340 339 335 333 332 332 331 330 330 330 329 331 333 336 338 342 350 352 353 355 357 359 358 355 352 350 349 349 349 349 349 349 350 350 350 349
350 347 345 345 344 343 341 340 339 337 338 334 332 332 332 329 330 331 332 334 336 339 340 343 348 350 351 354 358 359 358 353 350 350 349 349 349 349 349 349 349 349 349
349 347 347 346 345 342 340 339 338 338 336 337 335 333 332 331 331 330 332 333 336 340 342 344 345 345 348 351 353 357 358 356 353 351 349 348 348 349 349 349 349 349 349
344 343 344 345 344 341 341 341 339 336 336 334 330 331 331 331 330 331 333 334 335 337 342 343 345 345 346 349 349 352 356 358 356 353 349 346 347 349 349 349 349 348 348
342 341 340 340 341 342 342 341 339 336 335 337 331 330 326 331 328 330 332 333 334 336 340 344 346 345 346 346 347 348 352 355 357 355 349 346 346 348 349 349 348 347 347
334 337 338 338 338 339 339 340 340 339 335 339 335 331 322 322 327 329 330 332 334 334 336 339 343 345 346 346 345 346 346 348 354 356 351 347 347 348 348 348 347 346 346
326 329 332 334 336 338 339 338 340 340 338 332 337 334 335 333 326 324 329 330 332 332 335 337 340 343 344 345 346 345 341 343 349 351 350 348 347 347 347 346 344 344 344
322 325 327 328 329 333 336 338 338 338 339 336 334 334 332 332 332 325 322 326 331 335 336 337 340 341 343 345 345 342 337 337 338 341 340 341 342 345 344 344 344 345 345
318 322 325 326 327 329 332 334 336 337 336 336 335 334 331 329 328 327 324 325 325 330 334 339 340 340 342 343 342 338 334 334 331 330 331 334 338 338 340 341 342 344 345
316 319 321 322 323 326 329 331 333 334 334 332 333 333 333 333 334 333 329 325 325 327 326 332 335 339 340 341 341 337 336 329 327 325 326 329 331 332 334 336 338 339 340
316 319 320 322 323 325 326 328 329 331 332 332 332 333 333 333 335 333 329 320 317 318 322 322 327 329 336 338 337 333 336 328 326 324 324 325 326 327 329 331 331 331 334
312 314 316 317 320 321 322 322 324 326 328 330 331 332 331 334 333 329 328 324 320 313 314 318 319 328 332 333 334 335 336 330 328 325 324 324 324 324 324 325 326 328 330
309 310 311 312 315 317 318 320 321 324 325 327 329 330 331 332 330 330 328 325 323 319 314 319 321 326 329 331 333 334 335 331 327 325 326 325 321 321 322 323 324 326 328
306 307 307 308 309 311 314 317 319 321 322 323 325 327 328 331 328 327 327 326 324 321 316 318 322 326 327 328 333 336 337 337 337 325 325 323 318 318 320 321 322 323 326
304 304 305 306 307 308 310 313 316 318 319 320 322 323 322 326 327 328 327 325 325 321 318 316 321 323 324 330 333 332 333 335 338 328 324 319 319 317 318 316 319 321 318
302 303 303 303 303 304 305 308 313 315 317 320 321 321 321 322 322 325 326 324 322 322 321 319 318 324 326 331 329 329 330 333 334 327 322 320 318 317 316 314 313 314 312
301 302 303 302 302 303 304 306 308 312 315 319 322 322 322 321 322 322 322 323 322 321 321 320 320 323 327 326 328 326 325 328 330 332 324 321 318 317 314 314 315 314 310
302 303 301 300 301 302 305 307 309 310 315 318 320 322 323 321 321 321 323 323 322 320 321 321 319 322 319 316 319 321 322 324 326 328 326 323 322 322 319 315 319 316 310
299 300 299 299 300 301 300 301 303 304 310 317 317 320 321 319 319 315 315 316 321 322 320 319 317 318 314 316 317 319 320 322 321 325 327 324 325 322 322 323 315 310 308
298 298 298 299 299 300 299 299 301 305 308 314 316 316 317 321 318 322 315 312 313 313 318 323 317 316 311 313 318 321 321 322 321 325 328 324 327 324 326 320 308 307 306
297 298 298 299 299 300 299 298 299 303 307 314 315 315 315 318 320 318 319 319 321 319 318 321 321 316 315 315 321 325 323 322 324 326 328 323 327 324 320 317 307 306 305
297 298 299 299 298 299 297 297 298 302 304 310 315 316 318 319 308 302 316 316 315 310 306 307 306 301 301 305 315 323 321 320 316 319 323 325 324 319 317 313 310 305 303
298 299 299 299 300 299 297 296 298 302 304 308 314 316 306 309 300 302 313 314 311 310 311 311 310 307 309 308 307 322 320 316 317 318 325 324 321 320 312 312 309 308 305

GFSMA_sfc_thetae_105.txt.gz
Theta_e
352 353 352 352 351 351 350 350 349 348 347 346 344 341 338 337 337 334 332 339 340 343 343 347 351 354 357 356 353 352 351 351 352 351 350 350 350 350 350 350 350 349 349
352 352 352 351 351 351 351 350 348 348 347 347 345 344 342 341 339 337 334 334 339 341 344 348 352 355 358 358 355 353 351 351 351 351 350 350 350 350 351 351 350 350 349
352 352 353 352 352 353 353 352 351 351 348 348 347 346 345 344 342 340 339 336 334 340 343 345 349 353 356 358 359 356 353 351 351 350 349 349 349 349 350 351 351 350 349
355 352 353 353 355 354 352 351 350 348 348 347 347 347 347 346 344 343 341 340 339 338 340 346 347 351 355 358 359 359 356 352 350 349 349 349 349 349 349 350 350 350 349
356 354 354 355 357 354 354 352 351 349 347 347 347 347 347 346 346 344 344 343 344 342 340 340 346 348 351 355 358 358 358 355 351 350 349 349 349 350 349 349 349 350 349
357 355 354 353 354 352 350 349 349 350 349 348 347 345 347 347 346 344 344 343 343 343 343 346 344 344 347 351 353 355 357 357 354 351 349 348 348 349 349 349 349 349 350
354 354 353 353 353 349 349 349 347 345 344 346 341 341 342 346 345 344 344 343 343 343 344 344 346 344 344 348 348 351 355 357 357 354 349 347 347 348 349 349 349 349 348
347 347 345 340 342 337 342 342 342 338 337 341 336 335 328 331 338 343 343 341 342 343 343 344 346 348 349 347 351 348 351 355 358 355 351 346 346 348 349 349 349 349 348
339 341 340 339 339 339 331 338 339 339 331 334 340 334 326 322 329 336 342 341 343 342 344 344 346 349 352 349 348 349 348 349 355 356 353 348 347 349 349 348 348 347 347
334 335 337 337 339 333 336 334 334 337 337 330 332 338 339 336 326 323 333 340 342 342 344 342 342 346 346 348 349 346 343 343 349 352 353 352 350 350 348 347 345 345 344
331 330 333 335 336 334 337 337 337 337 333 331 327 328 335 335 335 328 324 328 335 339 341 342 342 342 346 347 347 345 340 339 341 344 347 349 348 346 346 347 345 345 345
325 327 329 331 333 333 333 333 336 337 335 333 330 331 328 326 325 330 331 328 329 335 338 341 343 343 345 346 346 340 336 334 333 335 336 337 338 341 345 343 344 342 344
318 324 326 327 328 331 332 332 333 334 334 331 334 327 326 326 330 331 332 328 329 330 334 339 340 342 342 342 341 339 339 331 329 328 328 330 333 336 336 338 339 340 342
314 319 320 321 323 324 328 331 330 329 332 331 333 335 327 326 329 333 331 330 327 328 331 334 339 338 338 339 339 336 341 330 327 325 324 326 328 330 331 332 332 331 332
314 315 316 316 317 318 320 322 322 326 328 330 331 333 332 329 329 333 337 335 328 320 320 329 329 338 339 339 337 341 343 333 328 324 323 324 325 326 326 326 327 327 329
312 312 312 313 314 314 315 317 318 321 322 325 327 331 332 330 331 331 337 337 333 327 323 329 330 334 334 334 336 338 341 332 326 325 325 325 323 322 323 324 324 326 328
310 310 310 310 310 311 313 313 315 316 317 321 326 326 328 331 328 328 334 335 328 328 326 328 331 335 333 332 333 338 340 340 336 325 326 324 319 319 321 321 322 324 325
309 309 309 309 309 309 309 309 309 310 312 316 319 323 324 325 328 331 331 332 331 326 324 321 331 331 329 333 334 338 336 338 339 328 324 320 317 317 318 319 319 321 319
307 307 307 307 307 308 307 306 307 308 309 312 316 318 321 325 325 325 326 330 331 327 325 322 322 329 330 329 331 332 336 339 340 327 320 318 318 317 317 316 314 313 313
305 306 307 307 308 307 306 306 306 308 309 311 314 318 319 322 324 325 325 327 329 325 324 322 321 323 327 330 330 331 333 342 337 337 327 325 320 316 313 314 315 314 310
305 306 306 306 307 306 305 306 306 305 306 306 309 312 319 322 320 322 324 326 326 323 321 320 319 320 322 326 327 329 333 336 337 336 328 329 328 329 323 316 319 316 310
305 306 305 305 305 305 302 301 303 304 304 306 308 310 314 318 319 314 314 315 322 322 321 319 319 318 321 329 328 328 334 332 324 335 332 327 331 328 328 329 316 309 307
303 302 303 305 303 303 300 299 300 304 303 302 305 310 314 320 319 323 316 311 312 311 314 322 320 320 321 330 331 325 329 326 327 331 333 326 328 327 327 324 308 306 306
303 303 303 302 301 303 299 298 299 303 303 303 306 308 315 317 321 319 319 319 320 319 319 319 321 322 325 323 323 324 324 326 332 330 334 324 328 326 323 320 307 306 304
303 303 302 302 301 301 299 297 298 301 302 303 306 308 312 319 310 303 313 315 318 322 308 309 309 308 305 306 318 325 326 323 320 324 333 326 326 319 316 313 310 305 303
301 302 302 303 300 300 298 296 297 301 300 302 305 307 307 310 302 300 316 316 315 315 318 310 310 305 307 310 311 325 327 322 321 321 330 325 324 321 311 311 309 309 305

GFSMA_sfc_thetae_108.txt.gz
Theta_e
355 356 355 354 353 353 352 353 351 352 351 351 349 347 345 343 342 339 336 348 343 343 342 345 350 353 354 355 356 355 354 353 353 352 351 351 351 351 351 351 350 350 349
358 355 356 355 355 355 354 354 353 353 352 353 352 352 352 352 350 349 345 342 345 343 343 345 349 352 355 356 356 355 353 351 351 351 350 350 350 350 351 351 351 350 349
360 359 355 355 354 356 359 357 357 356 354 353 352 352 352 353 352 351 350 347 346 343 343 344 346 348 352 355 358 357 354 351 351 350 350 349 349 349 350 351 351 351 350
361 359 355 356 357 358 356 355 355 354 352 352 352 352 353 354 354 354 352 350 346 345 345 344 345 347 350 354 356 359 357 353 351 350 349 349 349 349 349 350 351 351 350
358 357 356 358 360 358 356 355 354 355 354 353 352 352 352 351 352 351 352 353 352 348 346 346 346 346 347 351 356 358 358 355 352 351 350 350 350 350 349 350 350 350 350
358 360 358 358 357 354 353 352 353 353 350 350 347 345 347 347 348 349 350 351 352 352 350 349 348 345 344 348 351 356 358 357 354 352 350 349 349 349 349 349 349 349 350
358 359 358 355 355 350 349 349 346 345 342 343 339 337 338 343 346 346 346 346 347 350 351 351 349 347 345 346 347 351 356 358 357 355 350 347 348 349 349 349 349 349 349
351 350 347 340 341 335 340 341 341 333 331 334 331 331 326 328 331 337 338 344 347 346 347 349 350 350 351 346 348 348 352 355 357 356 352 348 348 348 349 349 349 349 348
338 339 338 337 336 337 328 335 336 336 326 328 336 328 322 319 324 329 339 336 345 343 345 347 348 349 352 350 348 348 348 349 354 356 354 350 349 349 349 349 348 348 349
335 335 337 336 338 332 339 333 331 333 334 326 325 327 337 332 323 320 328 333 338 343 347 343 345 349 350 350 350 348 344 345 350 352 354 353 352 352 351 349 348 346 346
336 334 335 336 338 335 340 339 338 338 331 327 323 322 327 323 329 322 319 323 329 333 336 337 340 342 351 349 349 346 339 339 341 345 347 351 353 352 351 349 346 345 345
329 332 332 334 336 336 336 335 338 338 338 336 329 327 322 319 320 320 319 324 324 329 332 334 337 340 344 346 348 342 337 335 334 336 339 343 347 349 347 346 347 347 346
323 329 330 331 329 332 334 335 338 336 337 334 339 329 326 323 322 321 320 320 320 324 327 331 332 336 339 343 347 342 340 333 330 330 332 336 338 339 340 343 344 344 342
320 326 325 325 325 326 327 329 327 330 337 334 336 335 327 326 324 321 319 318 318 321 324 334 332 335 338 340 343 337 344 331 328 326 327 328 330 332 335 336 337 336 335
319 322 322 322 322 322 323 323 321 325 329 333 332 334 330 329 328 326 323 322 318 316 319 325 327 340 336 338 340 346 346 335 330 325 325 324 325 327 330 330 330 329 329
320 319 319 320 320 321 321 321 319 321 323 322 324 330 331 329 331 329 328 325 324 321 320 323 326 335 340 336 339 340 342 333 328 325 325 323 323 325 326 326 326 327 329
318 318 318 318 317 317 318 318 318 318 318 319 321 323 326 331 326 326 328 325 323 324 321 323 326 335 344 342 339 340 339 340 337 325 325 323 321 321 321 323 324 325 324
317 316 316 315 315 315 315 315 313 314 313 313 315 317 318 323 329 330 327 329 326 327 322 325 326 328 336 342 340 339 337 337 338 329 324 321 319 317 318 319 319 321 320
315 314 314 313 313 313 313 313 313 311 311 311 312 312 314 319 324 326 327 326 325 326 325 323 321 326 331 334 336 338 336 338 339 333 322 320 317 317 316 318 317 314 314
312 312 312 312 312 312 312 311 311 311 311 310 311 311 311 314 317 321 325 327 328 325 324 322 322 323 328 333 332 328 329 334 337 338 329 325 321 317 315 315 315 315 311
311 312 311 311 312 310 309 309 308 309 308 308 309 308 310 311 312 313 317 324 327 325 321 320 320 320 323 326 327 328 329 333 337 334 333 332 331 331 323 317 321 316 311
311 310 310 309 310 306 303 303 304 305 305 305 305 306 308 309 311 309 309 312 318 324 322 320 323 322 323 325 326 331 329 329 327 340 331 333 337 335 335 337 316 309 308
309 309 307 304 305 308 301 300 301 305 305 304 305 305 307 307 309 314 313 311 311 309 312 324 321 324 326 326 329 330 332 328 328 332 333 325 333 331 331 321 308 306 306
308 306 304 308 308 307 301 298 299 303 304 303 303 304 308 308 311 313 320 321 322 324 325 323 324 323 329 332 332 332 335 334 341 340 332 327 331 325 322 317 306 306 304
304 305 307 307 304 304 300 297 298 301 302 300 302 306 307 309 305 301 317 319 319 318 317 308 310 310 310 308 319 335 330 330 329 332 329 324 325 317 315 313 310 305 303
304 304 304 303 302 304 300 297 299 303 299 300 303 306 302 306 302 299 312 317 315 322 323 318 314 311 310 320 308 327 326 325 323 324 327 328 322 319 311 311 311 309 304

GFSMA_sfc_thetae_111.txt.gz
Theta_e
357 355 354 352 351 349 348 350 349 349 348 350 348 346 345 344 343 341 341 351 346 346 347 347 349 351 354 353 352 354 356 354 353 353 352 351 351 351 352 352 351 350 350
358 354 355 353 353 353 351 351 351 352 351 352 351 352 353 352 352 354 349 349 347 345 347 347 348 350 352 354 354 354 354 353 353 352 351 350 350 350 351 352 351 351 350
362 360 354 354 353 357 360 358 358 356 354 353 353 351 351 355 351 355 353 351 348 346 345 345 347 348 350 352 354 355 354 353 352 351 350 349 348 349 350 351 351 351 350
361 361 355 354 363 367 362 360 358 355 355 351 352 352 351 354 354 358 356 357 354 351 349 345 346 348 349 350 353 354 354 353 352 350 348 349 349 348 349 350 350 351 350
359 359 358 363 364 366 365 359 355 357 353 352 350 349 351 348 349 348 355 358 357 356 354 352 345 345 347 349 351 352 353 354 352 350 349 349 349 349 349 349 350 350 350
359 360 362 360 362 356 357 352 353 352 350 347 341 340 345 345 346 346 347 348 351 356 357 358 357 349 345 348 349 351 353 355 354 352 350 349 348 350 349 349 349 349 349
357 359 359 359 358 354 353 351 347 347 338 341 336 335 338 342 346 345 346 345 345 347 350 353 357 354 352 346 346 348 351 354 356 354 350 347 348 349 349 349 349 349 349
358 359 356 350 353 341 349 345 348 335 332 336 330 329 324 329 334 336 339 340 343 343 345 349 352 355 356 353 352 345 349 353 357 356 352 347 347 349 349 349 349 349 349
343 343 340 340 342 341 329 342 341 343 329 331 337 325 319 317 325 331 335 335 338 337 339 341 346 348 355 355 351 351 346 348 354 356 353 350 349 350 350 349 349 349 349
336 334 337 337 344 337 343 339 337 336 337 327 328 328 333 328 320 318 328 331 335 335 339 340 344 348 351 351 353 350 344 344 350 353 353 353 352 352 351 350 349 348 348
338 334 335 337 343 338 342 347 345 343 334 329 326 325 328 326 328 323 320 323 329 331 334 336 339 342 346 349 348 349 340 340 342 345 348 351 353 353 352 352 350 349 349
336 338 335 339 340 340 339 338 343 344 341 338 334 331 326 323 321 321 320 323 323 327 330 333 334 338 341 338 344 341 337 335 334 335 338 342 347 350 351 352 351 351 349
326 337 334 334 332 337 337 338 338 340 339 337 338 334 332 329 328 326 324 322 320 324 325 330 332 334 337 341 342 340 340 334 330 329 330 333 338 343 346 348 348 347 348
325 332 330 330 330 328 330 332 328 328 332 331 335 337 334 333 331 329 325 323 320 322 324 328 331 333 334 337 338 338 342 332 330 327 326 327 331 336 339 339 341 343 340
323 326 326 325 325 325 327 329 324 327 328 328 328 330 330 331 331 331 330 329 322 317 319 326 326 337 336 339 341 340 345 337 331 327 325 325 325 327 330 333 338 336 333
324 323 323 323 323 324 324 327 323 325 326 323 323 326 327 327 328 330 330 329 328 323 318 324 326 333 338 333 335 344 344 331 328 327 327 325 324 324 326 328 329 330 330
322 321 321 321 321 320 323 322 321 321 320 322 322 321 321 324 323 324 326 327 327 327 320 324 327 332 337 339 340 343 341 342 336 325 327 324 321 321 322 323 325 326 325
321 320 320 319 319 317 320 319 317 317 317 317 317 317 316 315 320 322 323 326 325 327 323 320 327 325 333 336 334 338 338 337 338 330 324 322 319 318 319 319 320 320 321
319 319 317 317 316 316 315 316 315 316 317 317 316 316 314 314 314 315 319 320 324 326 327 323 322 327 327 330 332 336 338 339 338 332 322 320 317 316 316 317 317 318 314
317 316 316 315 315 314 314 314 314 314 313 313 314 314 312 311 310 313 313 315 320 322 324 323 323 323 322 329 330 329 330 335 335 336 333 327 319 316 316 318 318 315 311
315 315 314 314 314 313 311 312 311 310 310 309 310 310 310 311 310 310 309 311 312 313 319 321 321 321 319 319 323 328 329 330 335 341 335 327 324 325 320 318 320 317 311
312 313 313 312 312 310 305 303 306 308 308 307 306 308 309 309 309 307 307 307 309 311 311 316 320 319 320 323 323 324 327 326 326 341 332 325 330 326 325 330 318 310 309
313 312 311 311 312 312 303 301 302 306 307 307 307 307 306 306 307 307 306 306 306 306 307 313 317 320 322 325 326 327 329 329 329 338 334 326 330 328 328 317 309 307 306
312 309 309 310 310 308 302 299 300 305 305 307 307 308 305 305 306 305 307 309 311 315 319 316 318 322 326 327 328 329 331 332 334 335 339 323 326 318 317 315 308 306 304
307 307 309 309 307 308 302 298 300 305 304 304 306 307 305 305 302 299 304 304 305 308 314 310 310 309 304 304 314 329 327 326 324 329 333 326 318 312 313 311 308 305 303
306 307 307 307 306 309 301 298 300 303 301 300 302 302 302 302 299 298 302 302 304 310 317 322 324 316 307 316 306 325 325 322 325 329 329 323 316 314 308 310 310 308 304

GFSMA_sfc_thetae_117.txt.gz
Theta_e
343 344 344 343 344 344 344 341 341 341 340 340 338 336 335 334 334 336 338 353 348 350 353 354 354 353 352 351 350 350 351 353 353 353 351 351 351 351 352 352 351 351 350
347 344 343 345 345 345 344 342 341 339 341 342 343 345 338 339 342 344 346 347 350 348 350 352 354 353 353 352 351 351 349 349 351 351 351 351 351 350 351 352 351 351 350
350 348 349 347 345 348 346 346 349 349 347 343 338 340 335 337 340 343 339 347 347 350 351 350 352 353 353 353 353 351 350 350 350 349 349 350 350 350 350 351 351 351 350
344 349 345 341 342 349 347 344 343 343 342 338 331 332 330 333 336 343 346 350 346 344 349 353 352 352 353 354 354 353 352 350 349 348 348 349 350 350 349 350 350 350 350
342 339 340 337 336 336 332 333 330 338 341 340 342 340 342 339 342 343 337 339 342 343 343 348 351 350 351 353 355 355 353 351 349 348 348 349 350 350 349 349 349 349 349
339 338 338 338 332 336 330 332 330 332 342 338 333 330 328 329 330 331 333 334 337 336 335 334 336 341 350 352 354 355 356 353 350 349 348 347 348 349 349 349 348 348 349
340 336 336 333 330 336 330 336 335 336 330 328 322 321 321 322 321 321 323 326 329 330 331 329 329 333 338 347 349 350 351 355 353 352 348 346 346 348 348 348 348 347 348
339 329 333 332 333 342 335 334 332 329 327 327 322 315 310 313 315 318 320 323 319 321 321 324 326 328 329 335 339 341 346 353 355 354 350 346 346 348 348 348 348 348 348
343 340 336 338 332 329 327 330 329 328 322 325 322 316 310 306 309 314 316 318 319 318 318 320 323 325 329 332 335 340 347 348 354 355 352 348 347 349 348 348 347 347 347
341 335 330 329 330 329 327 329 330 329 326 320 321 322 318 315 312 313 314 315 320 319 320 322 323 323 324 325 334 340 340 342 347 351 351 349 349 350 350 349 347 347 347
328 330 329 328 328 327 327 327 326 325 325 324 322 320 318 317 315 312 312 313 316 314 318 317 318 316 322 328 326 332 336 337 338 342 343 345 347 349 347 349 349 348 348
328 327 329 327 328 327 325 326 324 322 322 323 324 324 322 321 322 320 318 318 317 319 317 318 317 319 319 320 331 335 333 332 332 334 336 338 342 345 346 349 349 350 352
322 321 321 320 320 321 321 321 319 319 318 318 318 319 320 320 320 318 317 316 316 319 320 319 318 320 320 319 320 332 333 329 328 328 330 333 336 339 341 343 346 349 351
318 319 318 318 318 319 318 318 317 317 317 316 315 315 316 316 315 315 314 313 310 312 315 315 320 321 323 322 324 332 327 328 328 326 326 327 329 332 333 335 337 340 344
318 317 318 318 318 318 318 318 316 315 316 316 316 315 314 315 315 315 315 316 313 307 308 315 317 322 323 325 326 326 324 327 328 326 324 323 324 326 327 329 331 333 337
316 316 316 316 316 317 317 316 315 315 314 314 315 312 311 312 313 315 312 311 311 309 305 311 313 318 321 324 327 326 322 330 329 327 327 326 324 323 324 325 327 329 332
315 315 315 315 314 314 314 314 313 314 313 312 312 312 312 313 310 309 309 308 308 308 305 306 311 314 316 319 321 323 325 326 326 325 326 325 322 320 321 322 323 326 327
313 314 314 314 314 314 312 311 311 312 311 310 311 309 308 310 306 307 308 307 307 307 306 303 305 308 310 314 318 320 322 325 321 323 324 322 319 318 317 318 319 321 321
311 311 311 311 312 311 311 311 310 310 309 308 307 306 306 305 303 304 304 305 306 307 307 305 303 306 308 311 313 319 320 322 326 329 323 321 319 317 315 316 315 316 315
309 308 309 310 311 311 311 309 308 305 305 306 306 305 304 304 304 304 303 304 305 304 304 304 303 303 303 305 309 310 316 317 319 327 323 320 317 314 313 314 316 317 313
308 308 308 308 308 309 310 305 306 304 305 306 306 305 305 307 309 308 305 305 304 302 302 301 300 299 299 300 301 307 309 316 317 321 321 320 321 321 318 316 319 319 312
304 305 306 309 309 310 304 304 305 306 305 303 302 303 304 306 305 306 306 306 305 302 301 300 299 299 299 299 303 304 307 311 312 320 319 321 324 321 322 321 316 311 309
300 301 303 307 308 307 303 302 303 305 303 302 303 304 302 303 305 305 305 305 304 304 305 303 300 300 300 301 301 302 306 310 314 317 319 317 325 322 323 321 309 308 307
300 298 300 304 305 305 302 300 301 303 303 303 302 302 302 303 304 303 303 302 302 303 303 304 303 303 303 303 303 303 305 308 314 317 320 312 320 312 312 311 307 306 305
296 297 300 302 303 304 301 299 300 301 302 302 302 303 304 302 300 298 300 299 299 300 304 303 302 300 299 299 303 306 304 308 307 311 317 314 313 309 307 305 307 306 303
296 300 301 302 303 303 301 298 299 302 302 303 303 302 301 300 298 296 298 299 297 299 301 302 303 302 300 301 301 303 304 303 309 308 315 314 310 309 304 306 304 305 302

GFSMA_sfc_thetae_123.txt.gz
Theta_e
341 341 341 339 340 341 340 339 338 337 337 337 337 336 336 336 336 338 338 346 349 352 355 357 359 358 356 354 352 350 350 350 350 350 351 351 351 351 352 352 351 350 350
340 339 338 340 338 339 337 335 336 337 339 338 336 336 336 337 336 339 338 336 343 350 352 355 356 356 357 356 355 353 351 348 349 348 349 349 349 350 351 351 351 351 350
339 339 336 338 335 335 334 334 334 334 334 336 334 333 331 334 337 338 335 335 339 345 349 353 355 356 356 358 358 357 354 350 349 347 347 347 348 349 349 351 351 351 350
342 336 334 337 336 335 335 335 334 331 332 333 332 330 330 331 333 337 339 337 341 343 342 346 350 352 354 355 354 358 355 352 351 349 348 348 347 347 348 348 349 350 349
340 336 335 335 337 335 334 335 334 333 329 331 331 329 329 329 331 336 339 337 331 330 329 337 341 345 344 343 349 354 352 351 350 350 350 349 348 348 347 348 348 348 349
341 338 336 336 335 333 333 333 331 331 331 330 332 331 329 328 328 329 326 324 318 320 323 322 324 322 334 340 343 345 345 347 351 351 349 348 348 348 348 348 348 348 348
342 340 337 336 334 332 333 332 331 328 328 329 327 326 328 330 326 320 318 316 317 319 319 319 320 318 321 333 335 337 340 345 344 350 348 346 347 348 348 348 348 348 347
339 337 337 338 334 332 331 331 329 328 326 331 324 314 309 310 313 315 316 317 317 318 319 320 318 320 320 320 323 335 338 340 342 346 345 344 346 347 348 348 348 348 347
338 331 332 330 328 329 330 328 328 329 323 323 324 315 308 307 308 317 317 317 316 316 317 318 319 320 319 319 324 324 331 335 339 341 343 344 346 347 348 347 347 347 347
333 331 330 330 329 328 326 326 328 327 322 319 321 321 317 314 313 312 314 314 317 316 316 317 318 319 320 318 321 326 329 331 334 338 337 343 347 347 348 347 346 346 345
333 337 335 331 325 325 324 324 321 320 320 320 319 318 317 316 315 312 312 310 315 318 318 319 319 318 319 318 318 322 327 329 330 331 333 336 340 345 348 348 346 346 345
323 324 324 324 323 322 321 319 317 316 315 315 314 314 314 312 311 311 309 309 310 312 313 316 315 316 317 317 323 328 329 328 326 326 327 329 333 339 343 346 347 347 346
315 316 317 317 317 317 317 315 313 313 312 312 311 311 311 311 312 311 310 311 309 312 312 313 314 314 318 316 319 326 325 324 324 323 323 324 327 332 336 341 343 345 345
314 313 314 314 315 315 314 313 311 311 311 311 311 310 310 311 311 310 309 308 305 306 307 306 309 311 312 313 318 323 315 319 322 320 321 322 324 327 330 333 335 335 337
314 313 314 313 313 313 313 311 311 311 311 311 311 311 311 312 312 311 309 308 306 302 303 307 307 308 309 311 314 314 311 319 318 316 320 320 322 323 325 327 328 328 329
312 312 311 311 311 311 311 310 309 310 310 310 311 310 309 309 308 308 307 307 306 305 301 303 305 305 308 311 313 312 311 317 314 318 320 321 320 320 321 322 324 325 326
310 310 311 311 311 310 310 308 308 308 308 308 309 308 308 308 306 306 305 304 302 301 299 302 303 303 304 306 308 308 310 308 312 315 316 316 317 317 318 319 320 321 322
307 308 310 309 309 308 307 306 306 307 307 306 306 305 305 308 303 303 302 302 302 303 300 298 301 301 301 303 304 304 307 311 307 311 312 313 315 316 315 315 316 317 317
304 305 305 306 306 307 307 306 307 307 305 304 304 304 303 303 302 302 302 302 302 303 301 299 298 301 301 302 302 304 304 303 306 310 310 315 315 315 315 315 314 314 312
300 300 301 303 304 305 306 306 306 304 304 306 306 304 303 302 302 302 302 301 302 301 300 299 299 299 300 300 299 299 299 300 300 305 308 309 312 314 314 313 314 315 312
298 299 300 301 301 302 306 305 305 303 303 304 303 304 303 305 308 308 305 303 302 301 301 300 299 299 299 299 298 300 298 299 300 301 303 306 310 317 317 316 319 318 313
295 296 297 298 297 300 302 303 304 301 304 303 304 303 303 305 304 305 306 306 306 303 301 299 299 298 299 300 301 300 296 296 294 301 308 303 308 319 320 321 316 313 310
293 293 294 295 295 296 299 299 302 301 302 303 303 301 301 302 304 303 304 305 305 304 304 302 300 300 300 301 301 300 299 297 297 300 303 302 309 309 315 315 307 308 307
293 296 293 294 294 297 299 298 300 301 302 302 300 300 299 300 302 303 303 302 303 303 304 304 303 303 303 304 303 302 300 300 297 298 303 300 306 309 310 308 305 305 304
295 296 297 295 296 299 299 298 298 299 298 298 300 301 301 301 301 299 301 301 301 301 303 303 302 300 299 298 301 303 300 298 296 296 302 302 305 307 306 304 304 305 303
294 296 297 299 298 296 297 297 297 297 296 297 299 301 301 301 299 297 299 300 299 300 302 302 302 301 299 300 300 301 301 299 299 299 303 306 310 307 303 304 303 303 302

GFSMA_sfc_thetae_129.txt.gz
Theta_e
351 351 350 349 349 350 349 348 346 347 348 349 348 347 346 347 348 349 347 344 345 345 346 348 351 355 356 355 356 356 355 353 353 352 351 351 351 351 352 352 352 351 351
351 350 350 348 348 349 347 347 347 348 349 349 347 346 345 343 343 345 343 346 342 343 345 348 348 348 353 356 355 354 353 352 354 353 352 351 350 350 351 352 352 351 350
353 351 348 348 348 350 351 351 350 348 346 345 344 344 343 343 342 343 343 344 345 345 345 347 345 346 348 349 352 345 347 348 349 348 346 348 349 349 349 351 351 351 350
354 352 349 347 350 346 347 346 345 343 343 343 342 342 342 341 340 340 341 342 343 344 344 341 339 341 339 340 340 343 344 344 343 342 343 345 347 348 349 350 350 350 350
355 352 349 348 348 347 346 346 344 343 342 342 341 342 339 337 339 339 342 342 342 340 337 336 335 337 333 333 335 336 338 340 341 343 342 343 342 344 346 349 350 349 349
354 352 349 349 348 346 344 344 342 340 338 340 337 338 338 338 338 339 339 340 338 337 335 332 330 329 333 331 333 333 335 336 339 340 339 340 341 342 342 346 349 350 350
352 350 349 347 344 341 341 341 338 335 337 339 336 336 336 338 339 339 338 339 339 338 336 330 330 329 332 331 331 331 332 332 333 337 338 338 339 341 341 342 345 347 348
347 344 345 343 339 338 337 338 340 337 337 339 334 333 326 328 328 330 332 333 333 331 329 331 333 334 333 330 329 330 329 330 332 334 336 335 336 337 340 342 345 347 348
344 344 344 341 338 339 339 341 340 340 334 338 338 332 325 319 323 328 331 331 334 331 331 332 332 332 331 328 327 328 330 328 330 331 330 330 331 332 334 337 339 343 346
345 344 343 340 340 341 343 341 340 339 337 335 335 336 336 331 323 319 325 328 328 327 329 328 327 326 327 326 327 328 328 328 327 326 324 324 326 327 329 331 335 339 344
342 342 342 340 339 338 341 340 340 340 338 336 335 333 333 331 332 326 317 318 321 322 323 323 325 325 325 325 326 327 327 327 325 323 321 321 322 323 323 327 331 335 342
339 341 339 340 341 340 340 340 338 336 336 335 333 330 326 322 319 318 315 316 316 319 321 323 323 323 323 324 325 325 324 323 323 321 320 320 320 320 320 324 329 332 338
335 337 339 338 336 334 333 332 331 331 329 326 326 322 322 320 320 318 316 314 313 317 318 320 321 321 321 322 321 322 321 320 319 319 318 319 319 318 318 323 322 325 329
329 330 330 330 328 327 327 327 326 326 326 324 324 324 321 321 321 320 317 315 311 313 314 318 320 320 320 320 320 321 319 318 317 316 316 317 318 317 319 317 316 318 321
324 325 325 325 324 324 324 325 323 323 323 323 323 323 321 320 321 320 319 318 314 307 308 314 314 320 319 319 319 318 317 316 316 315 314 316 315 316 317 314 315 316 320
322 322 322 322 322 322 322 322 321 321 320 319 319 320 320 319 319 319 319 318 316 312 306 311 313 317 318 316 317 317 316 315 314 314 315 314 314 315 314 312 313 315 320
319 319 319 319 318 318 319 319 319 318 317 318 318 318 318 320 317 317 316 315 313 311 307 309 313 315 315 314 314 315 315 314 313 313 314 313 312 313 311 311 311 315 315
313 313 313 313 313 314 315 314 314 315 315 315 315 316 316 315 316 316 314 313 311 311 309 307 310 310 311 313 313 312 312 313 313 313 312 311 311 311 309 309 309 309 310
309 309 309 309 309 310 310 310 311 311 312 313 314 314 314 314 313 313 312 311 309 309 308 308 307 309 309 311 310 310 310 312 312 312 311 311 310 309 308 308 308 309 309
306 306 307 307 308 307 307 308 309 311 312 313 313 314 313 313 312 312 310 310 309 307 305 303 303 305 307 310 310 306 305 310 310 311 310 309 309 309 308 309 311 312 310
305 305 306 306 306 306 306 306 307 308 309 310 311 311 312 312 311 310 309 309 310 308 307 304 303 304 305 307 307 308 304 305 309 310 308 310 310 312 312 313 314 318 314
304 304 305 305 305 305 300 299 302 306 308 309 308 309 311 310 310 307 307 307 307 307 307 306 305 304 306 308 308 306 303 302 301 311 308 307 310 309 312 312 309 306 310
303 304 305 305 305 306 299 298 299 305 307 308 309 309 309 309 309 310 308 306 306 305 305 306 304 307 306 306 306 304 303 303 302 307 307 304 310 308 312 314 306 304 305
302 303 301 302 303 304 299 297 298 306 308 308 308 309 309 309 310 309 308 308 309 310 312 308 305 305 306 307 307 305 305 304 305 307 307 301 309 308 311 313 306 304 304
300 298 299 301 301 303 299 297 298 304 306 306 308 309 308 308 304 299 300 300 301 302 305 304 303 302 300 299 302 306 302 301 300 302 307 303 307 309 313 310 309 304 303
298 298 300 304 302 303 299 296 297 300 301 303 307 309 304 303 298 296 299 299 298 300 302 303 305 304 301 302 301 302 303 300 300 300 305 304 307 309 308 307 306 308 308

GFSMA_sfc_thetae_132.txt.gz
Theta_e
352 351 350 349 349 347 348 348 346 344 345 345 345 344 343 343 346 350 351 349 347 347 348 347 349 352 354 354 354 354 353 352 352 353 352 352 352 352 353 352 352 352 351
355 353 352 351 349 347 346 346 346 346 345 344 346 350 349 347 347 348 346 347 347 344 345 345 345 342 347 352 355 345 345 345 347 347 347 349 349 351 352 352 352 352 351
357 357 352 350 348 351 351 350 349 349 349 349 351 351 349 349 347 346 346 345 345 345 346 348 340 344 345 344 344 346 344 344 343 342 342 343 344 345 348 350 352 352 351
358 357 352 351 350 351 349 348 348 348 349 349 350 349 347 347 347 346 344 343 342 343 345 346 338 335 336 335 334 336 341 340 341 342 342 343 343 344 342 345 348 350 350
358 357 353 352 355 350 350 351 351 351 349 347 346 345 345 346 346 344 344 343 346 345 343 342 336 335 331 331 333 333 334 339 339 340 341 340 341 341 342 343 343 346 350
359 359 356 355 354 348 349 351 352 350 342 341 339 337 341 342 342 342 343 343 343 344 344 343 339 332 333 329 331 331 333 333 336 337 337 338 339 338 340 341 342 343 345
358 357 352 353 352 349 350 342 340 339 341 341 337 339 340 342 344 340 339 340 342 341 336 335 334 331 333 332 332 331 329 330 331 333 336 336 333 333 335 338 339 340 343
356 355 354 350 349 345 343 341 339 338 339 343 337 333 327 330 335 332 329 330 331 332 330 332 335 336 337 334 335 333 331 329 329 331 333 331 328 328 330 331 332 334 338
353 352 349 348 346 343 342 345 343 342 338 342 343 335 327 323 328 330 334 332 335 332 332 332 333 334 335 333 332 332 332 326 328 329 327 325 324 325 326 327 327 331 334
349 350 349 347 346 344 342 345 345 345 344 337 339 341 341 338 327 321 326 328 331 330 331 329 329 330 331 330 332 332 331 327 327 326 324 324 323 323 324 324 324 327 330
348 347 348 346 347 346 346 347 347 345 341 340 337 336 337 335 334 327 320 322 325 325 326 326 327 329 330 329 328 328 324 323 325 323 323 322 322 322 322 323 323 325 329
345 346 346 347 347 345 345 344 343 343 343 341 338 336 331 325 323 322 319 321 320 322 323 325 327 327 327 326 328 328 326 324 323 324 322 320 320 320 320 322 321 324 325
341 344 344 344 342 343 344 345 342 341 338 335 335 330 328 326 326 323 320 318 317 319 321 323 324 324 325 325 325 327 325 322 320 319 320 319 318 317 318 320 319 320 320
337 339 342 342 340 338 339 339 334 333 334 331 332 331 327 325 324 323 321 318 315 316 319 327 323 323 323 324 325 324 323 321 320 318 317 316 316 316 317 317 315 317 315
331 332 333 334 334 333 332 332 329 330 330 330 329 329 326 325 324 323 322 320 316 311 312 319 317 325 322 323 323 324 322 320 320 317 316 315 314 315 316 316 317 316 314
328 328 327 328 328 328 328 329 327 328 326 325 324 325 325 323 323 322 321 320 319 316 312 316 316 320 322 320 321 323 320 319 317 316 316 315 314 314 314 314 316 315 313
323 322 322 323 323 324 325 325 325 324 323 324 324 323 322 324 321 321 321 320 318 317 312 315 317 319 319 320 320 320 320 319 318 317 317 315 314 313 312 312 313 312 312
319 318 318 318 318 318 320 319 318 319 318 318 319 320 319 319 322 322 317 319 316 318 314 313 315 314 316 321 320 318 316 317 316 315 315 313 311 310 310 310 310 310 309
315 315 315 315 314 315 315 316 315 316 317 318 319 318 319 319 318 316 316 314 315 316 315 311 310 312 313 314 315 317 317 317 317 317 314 312 311 310 310 310 309 308 307
311 312 313 313 313 313 314 314 314 314 315 316 317 317 317 316 316 316 315 316 316 314 312 310 309 309 310 315 314 311 312 315 315 316 316 312 311 310 310 309 309 310 309
312 312 312 313 314 313 311 309 309 311 313 314 316 316 317 316 313 312 311 312 312 311 310 309 309 309 310 311 312 313 312 312 314 313 311 312 313 314 314 311 313 314 309
312 312 313 312 312 312 301 301 303 307 310 312 313 315 316 314 314 310 309 308 309 309 309 309 309 310 315 314 313 313 309 306 303 311 311 310 315 313 315 315 308 306 305
312 312 312 310 309 307 300 299 300 306 309 312 313 313 313 314 313 314 311 309 308 306 306 307 306 306 307 311 309 307 306 305 304 307 307 304 313 310 315 314 309 305 304
309 309 309 309 308 306 300 298 299 308 310 312 313 313 312 314 314 307 306 305 305 306 307 307 306 306 307 308 307 307 306 306 306 307 308 302 312 311 315 317 308 305 303
305 306 307 308 306 306 298 296 298 304 306 308 310 311 310 308 303 299 301 301 302 304 306 304 302 301 300 300 302 305 304 302 301 303 308 306 310 309 312 317 311 306 302
303 302 304 306 303 305 297 295 295 297 298 303 307 309 304 304 297 296 298 300 298 301 302 302 303 303 302 304 301 302 303 301 302 301 308 307 307 309 309 310 309 309 310

GFSMA_sfc_thetae_135.txt.gz
Theta_e
354 352 350 348 348 346 347 346 346 347 345 345 343 341 340 341 342 341 345 353 350 349 350 351 351 351 350 353 353 351 346 348 348 349 350 350 351 352 352 352 352 352 352
358 353 352 350 349 348 347 346 346 346 344 344 342 344 344 346 345 345 346 348 351 350 348 349 350 347 347 350 353 343 342 342 344 343 342 343 343 345 346 348 350 350 350
362 359 353 351 350 352 353 352 349 348 346 344 347 346 348 351 349 348 347 347 347 347 347 349 348 343 345 341 346 343 344 342 341 342 341 342 343 343 344 344 344 345 347
359 360 353 352 352 353 349 348 347 344 343 343 351 345 348 352 351 349 348 348 344 342 348 348 348 341 345 337 337 338 340 339 339 339 339 341 341 341 342 342 342 343 343
359 359 355 353 362 351 350 349 348 351 350 348 348 348 346 345 344 342 349 349 348 345 343 346 342 339 340 337 337 337 337 339 339 339 339 339 338 340 338 338 339 340 343
358 361 356 360 357 355 349 349 354 353 351 349 341 338 339 341 342 343 344 344 345 347 347 348 344 339 339 339 338 336 336 334 335 336 336 336 337 334 334 335 336 336 337
359 362 358 355 356 353 354 352 352 346 343 345 341 340 342 346 347 345 347 341 342 343 343 345 339 335 334 340 339 339 334 333 332 332 334 336 331 330 330 330 331 331 332
357 356 356 354 355 355 352 344 345 339 341 342 335 341 330 332 337 342 338 333 337 332 331 336 336 337 339 336 337 338 335 334 330 330 332 332 328 327 327 327 328 329 329
355 355 355 356 354 352 343 341 344 346 339 345 347 340 328 324 329 334 340 334 341 334 335 336 338 335 341 335 335 336 334 330 329 329 329 329 326 326 326 325 325 326 327
353 352 352 352 353 347 343 344 344 348 343 340 340 343 344 338 329 326 334 336 335 339 342 330 331 335 337 332 337 337 334 333 327 327 327 326 325 325 324 324 324 324 325
351 348 351 351 349 346 347 347 347 347 348 343 339 338 343 334 340 330 324 325 330 330 331 330 330 331 336 336 333 333 328 326 327 326 324 323 323 323 323 323 323 323 324
349 348 347 350 351 351 349 347 349 347 346 347 343 340 335 330 326 325 321 324 323 325 327 329 330 330 332 332 332 332 330 327 326 324 325 324 323 322 322 322 321 322 324
348 347 346 347 350 346 346 346 347 345 343 341 341 335 332 328 327 326 323 321 319 322 324 327 328 329 329 330 331 330 328 324 322 321 322 322 322 320 319 319 318 320 321
341 342 342 344 343 340 340 341 339 338 340 335 336 336 331 330 329 326 322 320 318 319 322 327 327 327 328 329 330 328 327 324 322 320 319 319 320 319 318 317 316 317 317
335 335 335 335 335 334 335 336 333 336 334 335 336 336 331 327 326 324 324 323 319 315 315 321 321 330 327 326 327 327 327 324 322 319 318 317 317 317 316 316 317 316 315
333 332 331 330 330 331 331 332 331 333 332 329 327 332 331 326 326 325 324 322 322 319 315 319 320 325 328 322 324 325 325 322 321 319 319 318 316 316 315 315 315 315 314
327 325 324 324 324 325 326 326 326 325 324 327 328 325 326 329 322 323 323 322 321 320 316 317 321 323 323 322 323 324 324 323 321 318 319 316 315 314 314 313 313 313 313
321 320 319 319 319 319 321 320 319 319 318 318 319 321 320 320 326 325 321 324 321 320 317 315 318 318 319 323 321 320 320 318 320 318 317 315 313 312 311 311 310 310 310
316 315 315 314 314 315 316 317 317 316 317 318 318 318 319 321 322 320 319 317 315 315 316 313 313 316 317 318 317 319 319 320 320 320 317 315 313 312 311 310 309 309 308
313 313 314 314 315 316 316 316 315 313 313 315 316 318 318 318 317 317 316 317 317 316 316 315 313 313 314 317 315 313 313 316 316 317 317 314 313 312 311 311 311 311 308
316 316 316 316 316 316 309 309 310 310 311 312 314 315 318 318 316 315 314 315 314 312 311 310 310 311 313 312 312 312 311 314 315 317 313 311 312 317 316 315 315 314 310
315 316 315 315 314 312 302 302 304 306 309 310 312 314 315 316 315 311 310 310 309 308 307 307 307 306 308 309 310 310 310 309 306 314 309 308 312 312 316 316 310 307 306
313 312 312 312 310 309 300 299 299 305 309 312 313 314 314 314 314 313 308 307 307 306 306 305 303 303 304 306 307 306 306 306 306 309 308 305 309 310 315 315 307 306 304
308 308 309 310 309 305 298 296 297 308 309 310 310 310 310 310 310 302 301 302 303 305 306 306 305 306 307 307 307 306 306 306 307 308 309 302 308 309 315 316 307 306 304
306 304 306 307 306 307 297 296 297 301 301 304 308 311 311 310 297 295 297 298 299 301 304 303 302 300 299 299 300 301 300 300 301 303 307 304 306 310 312 316 313 307 305
305 304 303 305 304 303 297 295 295 300 304 306 308 311 304 297 294 294 294 296 295 298 299 299 302 304 302 304 302 302 301 298 300 301 307 304 307 310 311 313 309 308 309

GFSMA_sfc_thetae_138.txt.gz
Theta_e
357 354 354 354 349 348 349 347 346 347 343 342 342 343 340 339 341 342 347 354 352 353 353 352 354 355 356 352 353 353 354 351 348 347 348 348 347 346 346 347 347 349 350
358 356 358 355 353 353 351 350 348 350 348 345 344 345 343 341 345 348 347 349 351 351 352 353 354 354 351 351 353 351 341 342 343 343 340 340 341 343 344 344 346 345 345
363 353 358 354 355 355 357 353 352 349 346 346 343 344 347 347 346 347 347 345 347 349 349 351 352 353 347 349 347 347 342 341 340 340 339 340 341 341 341 339 340 342 343
361 361 357 353 354 358 354 353 350 347 345 345 347 348 347 347 347 345 346 347 346 343 347 349 350 351 347 347 344 345 343 340 338 339 339 339 340 339 340 339 338 339 341
361 361 359 357 362 355 355 353 353 348 346 349 348 346 347 344 342 342 341 341 344 345 343 347 348 348 344 345 342 343 344 340 339 338 339 339 339 339 337 336 335 336 337
361 361 359 359 357 354 350 351 346 349 347 347 342 337 340 339 339 338 340 341 342 343 345 343 344 340 342 342 341 343 342 342 340 338 338 336 337 334 333 332 332 332 333
361 362 360 356 357 354 354 352 347 343 341 342 337 337 336 336 338 340 341 341 342 343 343 344 343 341 338 342 340 342 341 339 339 339 335 334 332 330 330 329 329 329 329
359 358 355 354 356 355 352 349 344 341 340 339 329 335 328 331 334 340 336 332 335 335 338 337 337 335 335 332 332 340 341 341 339 337 334 334 330 329 329 328 327 327 327
356 356 357 356 353 352 347 343 342 339 334 337 337 332 325 322 329 331 330 327 330 333 331 333 333 334 333 335 337 339 341 341 338 334 333 333 330 328 328 327 327 326 326
356 355 354 352 352 349 346 344 344 337 336 332 336 341 336 332 320 318 323 332 333 336 335 335 330 334 332 332 337 337 336 336 337 335 333 331 329 328 326 326 325 325 325
351 351 351 352 349 349 346 345 343 344 343 338 335 334 334 334 332 324 320 323 327 330 328 328 326 328 329 331 329 332 335 334 332 332 332 329 327 326 326 325 325 324 324
351 351 348 350 350 349 344 344 344 345 343 339 338 336 335 330 325 322 319 320 320 322 325 325 326 326 327 326 333 334 333 329 328 327 327 327 326 325 325 324 324 324 324
346 348 348 348 348 347 346 345 344 341 339 337 337 335 333 330 329 326 323 320 318 320 320 322 322 322 324 325 328 330 330 326 324 323 323 324 325 325 323 322 322 322 320
342 344 342 340 340 340 339 339 337 337 338 334 333 333 331 329 328 327 323 318 314 315 317 318 322 322 323 326 327 330 322 324 323 321 320 321 322 322 322 322 321 320 318
337 338 339 337 336 335 335 336 332 331 334 333 332 331 329 328 326 324 323 320 316 311 311 316 316 321 325 322 324 321 319 322 323 320 319 319 318 319 319 319 319 319 318
334 333 332 332 332 331 331 331 329 328 326 326 326 326 327 324 324 324 322 320 319 315 311 316 317 319 321 320 322 320 319 323 321 319 320 320 318 317 317 317 317 317 317
328 325 325 325 323 325 325 326 325 323 322 320 320 319 319 320 319 320 320 319 317 316 313 314 316 317 316 316 318 318 320 318 318 319 320 319 316 314 314 314 314 315 315
322 319 320 318 317 317 319 318 317 317 317 316 316 316 316 318 317 318 318 316 316 314 311 307 310 312 314 316 316 316 315 316 315 318 318 316 314 312 312 312 311 311 311
317 317 316 316 316 317 317 316 316 313 312 311 312 312 313 315 314 315 314 314 313 313 313 311 310 313 313 315 313 314 314 314 316 320 317 316 314 313 312 311 311 310 309
317 317 318 317 317 313 309 309 309 308 309 310 311 312 312 312 313 313 311 311 312 311 311 309 308 308 310 311 313 311 310 313 313 316 317 314 312 312 311 311 312 313 310
317 316 316 316 314 311 305 304 306 305 306 307 310 312 313 314 315 313 312 310 309 308 307 306 306 307 307 308 308 310 309 310 313 315 314 312 311 311 312 313 315 315 312
313 313 313 312 310 306 300 300 301 301 305 307 309 312 313 314 312 310 307 305 305 303 302 302 302 302 303 304 306 306 306 305 303 313 311 309 311 309 310 311 313 309 307
311 309 309 308 307 303 298 297 299 301 307 309 307 306 307 310 304 300 300 302 303 303 304 302 300 301 302 304 305 303 304 304 303 307 309 306 309 307 309 311 307 306 305
306 306 306 306 307 301 297 296 297 301 302 304 308 308 309 307 298 296 296 297 298 300 301 302 302 302 303 304 304 304 303 303 303 304 305 302 306 305 308 310 307 306 304
304 305 304 305 305 304 296 295 296 300 303 304 306 308 304 299 295 294 294 294 296 298 302 302 301 299 297 297 299 299 298 298 297 300 305 305 304 304 305 310 308 307 305
303 303 303 306 303 302 296 294 294 298 300 300 305 306 302 295 293 292 293 293 293 295 295 298 300 304 305 307 303 304 301 297 298 299 306 303 303 304 306 310 307 307 307

GFSMA_sfc_thetae_141.txt.gz
Theta_e
341 339 340 343 345 343 342 340 340 338 337 336 335 334 333 335 333 336 342 353 351 353 356 356 355 355 355 355 352 352 353 354 354 351 348 348 347 345 346 346 346 346 348
342 343 341 344 344 342 342 342 341 343 340 337 336 338 338 337 335 340 341 347 350 350 352 355 356 355 356 354 349 351 352 345 341 342 341 340 340 342 344 343 344 344 344
347 348 346 342 342 342 344 343 342 339 337 337 336 338 342 343 344 342 342 343 344 349 349 351 353 354 355 352 349 351 345 341 341 341 339 339 339 340 340 338 339 340 341
350 350 349 348 350 349 346 339 338 337 337 337 340 341 342 341 340 340 341 341 341 345 348 350 351 351 351 351 348 348 348 342 340 339 338 338 338 339 339 337 338 337 337
351 348 348 348 348 346 343 341 341 339 338 338 339 338 337 336 337 340 337 338 339 341 343 345 349 349 349 350 348 348 346 344 341 339 339 338 338 339 337 336 335 334 333
353 350 348 348 347 344 343 342 337 340 337 335 337 336 334 335 337 336 336 338 337 340 343 341 342 344 348 349 346 347 346 346 342 341 339 338 339 336 335 333 332 331 330
351 349 348 346 345 343 343 338 336 334 332 334 329 326 328 331 333 332 337 337 339 340 340 341 341 340 340 346 345 345 344 345 345 342 339 337 336 335 333 332 330 329 328
351 349 346 344 345 343 341 338 334 331 330 332 324 327 321 326 331 333 332 333 328 331 333 339 340 340 337 334 338 343 344 345 346 345 341 336 335 334 332 331 329 329 328
350 348 347 345 343 342 340 336 334 329 327 330 332 327 319 316 320 327 326 328 325 326 327 326 329 333 331 330 334 338 342 342 345 346 342 336 335 333 332 330 329 328 327
347 347 345 343 341 340 336 335 337 333 328 322 328 332 328 326 316 313 321 320 327 328 328 329 329 328 328 326 333 337 338 339 342 343 342 338 334 333 332 330 329 328 327
343 344 343 341 339 339 338 335 333 331 332 331 328 327 326 325 322 317 315 318 318 320 321 322 322 320 323 324 326 327 333 335 337 338 337 336 334 333 331 329 328 327 326
339 341 342 339 339 338 336 335 335 332 331 330 329 328 325 321 318 316 314 314 314 319 319 320 320 319 319 319 327 332 330 329 328 328 330 332 333 331 328 327 327 327 326
337 336 337 337 336 335 333 332 330 330 330 327 326 326 324 323 322 320 317 316 313 314 315 316 317 318 319 318 320 328 329 326 325 324 324 326 327 328 328 327 326 324 324
333 332 330 329 329 330 328 326 325 325 327 326 324 324 323 323 322 320 317 312 312 313 312 311 315 316 316 318 322 326 318 324 323 321 321 322 323 324 325 325 325 324 323
330 328 327 326 325 325 325 322 322 321 319 319 319 320 319 320 319 317 316 314 311 308 309 313 311 315 317 316 317 317 316 320 323 321 320 320 320 321 321 322 321 321 321
321 320 320 320 319 319 318 318 317 317 315 314 315 313 313 314 314 314 314 313 312 311 307 311 311 312 315 315 317 316 316 321 320 320 320 320 318 318 318 319 319 319 320
313 313 314 312 312 312 311 310 311 311 311 309 309 309 310 311 312 313 312 311 310 309 307 309 310 311 309 310 313 314 317 316 315 317 318 318 317 316 316 317 316 317 317
310 310 311 310 312 311 308 307 307 308 307 306 307 307 308 312 309 309 309 309 308 308 309 306 308 309 309 312 312 312 314 316 314 316 317 316 315 314 313 312 312 313 312
308 309 309 309 307 306 304 304 304 304 304 305 305 305 307 307 306 307 308 308 308 309 308 307 307 309 310 310 310 311 312 312 313 318 317 316 315 314 313 312 311 311 309
310 310 310 310 305 303 302 302 302 301 301 303 304 305 307 308 309 308 307 306 307 305 306 306 305 306 307 309 309 308 308 312 312 316 316 315 312 312 311 311 312 313 310
308 309 308 307 304 302 300 298 298 298 298 300 304 308 309 310 311 305 302 301 301 301 301 301 301 302 302 303 303 305 305 306 308 311 311 313 312 313 313 312 315 315 310
304 305 305 305 302 301 299 299 300 296 299 305 302 303 306 309 302 301 301 301 300 298 298 298 299 298 299 301 303 303 303 302 300 308 307 308 312 309 310 310 310 309 308
301 303 304 305 300 297 297 296 298 297 298 301 303 305 307 303 299 296 296 297 298 300 301 300 298 298 299 301 302 301 301 301 301 306 306 303 307 306 309 311 308 306 305
300 300 303 305 300 298 296 295 296 296 300 301 302 305 299 295 295 294 293 294 296 297 298 300 299 299 301 302 302 301 300 300 301 303 304 298 303 302 307 308 307 307 305
301 301 303 302 301 298 295 294 294 294 296 296 301 301 298 294 294 293 292 293 294 294 298 299 299 298 297 298 299 300 299 298 297 300 303 301 303 304 305 306 308 307 305
297 297 300 301 299 295 294 293 294 294 294 296 299 297 297 294 293 292 292 292 291 292 294 296 299 301 303 306 305 306 305 299 298 298 305 303 303 303 304 308 306 306 306

GFSMA_sfc_thetae_144.txt.gz
Theta_e
337 339 340 342 342 341 341 338 337 337 337 337 336 334 333 331 332 335 333 349 350 351 356 358 356 356 355 355 353 353 352 352 352 352 350 350 348 349 347 342 344 345 345
338 339 336 340 341 342 341 340 338 337 336 336 335 334 333 335 338 334 338 340 350 350 353 355 355 355 354 354 353 349 348 347 345 347 345 344 341 341 341 341 342 342 342
338 342 338 340 342 342 340 340 340 339 337 336 335 335 340 341 339 339 340 341 344 349 349 350 352 352 353 354 352 349 348 347 345 342 342 339 339 339 339 336 335 337 337
342 346 343 343 346 345 343 342 339 335 334 335 337 336 337 338 337 338 338 338 339 344 347 350 351 352 352 353 352 350 348 347 342 342 340 339 339 338 338 335 336 335 335
348 348 347 344 344 343 342 340 339 337 336 335 335 335 334 334 334 338 337 337 336 337 338 343 348 349 350 352 352 352 349 347 345 342 340 340 340 339 339 336 335 334 333
349 347 345 345 344 341 340 339 335 337 335 333 335 333 331 331 331 331 333 336 336 336 338 341 342 343 348 351 351 352 351 349 345 343 340 339 339 339 338 336 335 333 331
350 347 346 344 343 341 340 337 335 332 330 331 325 324 326 327 329 330 334 337 337 338 338 339 339 340 341 347 348 350 351 350 347 344 340 338 338 338 338 337 335 333 331
350 349 346 342 342 340 338 336 334 329 329 329 323 321 317 321 326 327 328 331 329 327 327 327 327 336 339 338 339 346 349 349 348 345 342 339 338 338 337 337 334 332 331
349 346 345 343 340 340 338 336 332 329 324 327 327 320 315 313 317 323 324 323 325 327 327 327 327 330 336 334 336 338 344 345 348 347 344 342 340 339 337 336 335 332 331
347 345 344 341 340 338 334 333 334 330 328 323 323 328 325 322 316 313 320 320 321 323 325 325 325 327 327 327 330 336 336 338 343 344 343 343 342 341 337 335 333 333 330
342 344 341 339 337 337 335 333 330 327 327 326 324 324 322 321 318 314 312 316 319 320 319 319 319 318 319 319 319 324 331 334 335 338 340 340 341 339 336 335 333 333 330
338 339 339 337 337 335 333 332 332 330 328 327 325 324 321 318 317 316 315 313 315 319 318 317 316 316 316 315 323 329 328 327 328 330 332 333 335 334 334 332 330 329 329
333 333 333 331 330 328 327 327 325 323 323 322 321 321 323 323 321 317 314 313 311 312 313 314 314 315 317 315 319 326 325 324 323 323 324 326 328 330 330 330 329 327 327
328 330 328 327 325 325 323 322 320 319 316 316 316 316 317 317 317 316 313 310 308 309 310 310 313 314 313 315 319 323 316 321 321 321 320 321 323 325 326 326 327 327 327
326 323 322 321 319 318 317 315 313 313 311 311 311 310 310 312 311 312 311 310 307 305 306 310 308 312 313 313 315 315 314 318 320 320 320 320 320 321 322 322 322 322 323
312 312 311 311 311 310 310 309 308 308 306 306 307 306 306 308 308 309 309 309 308 307 305 308 309 311 313 313 315 314 314 319 319 319 320 320 319 318 319 319 319 320 321
309 310 310 310 308 306 305 304 304 304 304 303 304 304 304 305 305 306 307 307 306 306 304 307 308 309 305 307 311 312 314 313 314 317 318 318 316 316 316 316 317 318 319
307 308 309 306 305 304 303 302 302 302 301 300 302 302 303 307 304 305 304 304 304 305 304 304 307 309 309 310 309 308 310 312 312 316 316 316 315 314 313 313 313 314 314
308 307 305 304 303 302 301 300 300 300 299 300 301 302 303 305 307 309 307 307 308 307 305 304 304 306 306 308 308 309 309 310 313 317 316 315 314 313 313 312 312 311 310
306 305 304 303 301 300 299 299 299 297 298 300 301 303 306 307 306 302 302 301 301 299 300 300 301 302 303 304 305 304 304 307 307 310 312 312 312 313 312 312 312 313 309
304 305 303 301 299 298 298 297 297 297 296 299 304 305 307 308 305 302 298 297 297 296 296 297 297 299 299 300 300 303 302 304 306 307 307 308 309 312 311 312 314 314 311
301 302 301 298 296 298 297 298 299 295 297 300 301 303 306 301 298 297 298 299 298 296 295 295 296 296 297 299 300 300 301 299 298 307 306 305 307 307 308 310 310 308 307
297 299 301 300 297 296 296 296 298 295 296 297 298 301 298 296 295 295 295 297 297 298 299 297 295 296 297 298 299 298 299 299 300 303 303 301 305 303 306 307 308 306 305
298 302 301 300 298 296 295 295 296 294 295 296 297 295 295 295 295 294 293 294 294 295 296 297 297 297 298 299 299 300 300 300 301 302 303 298 303 302 304 306 307 306 305
297 301 299 297 295 292 294 293 294 292 293 294 297 296 296 294 294 294 293 292 293 294 298 299 299 298 297 297 299 302 301 300 299 300 303 301 302 303 305 305 307 307 304
292 295 297 297 296 290 293 293 293 293 292 294 295 295 297 294 293 293 293 292 291 292 294 296 298 300 302 304 304 305 303 299 300 298 305 302 303 304 303 307 306 303 306

GFSMA_sfc_thetae_147.txt.gz
Theta_e
337 339 339 340 342 341 341 339 337 338 337 337 337 335 334 332 331 331 332 343 347 351 355 356 355 355 354 352 351 350 350 351 348 342 341 341 342 344 346 345 339 344 343
337 338 337 339 340 341 340 339 336 336 336 335 335 335 334 332 335 338 337 337 346 349 350 353 354 351 348 348 350 349 348 347 342 342 343 342 341 345 343 341 339 337 337
337 337 337 336 338 339 339 339 338 336 336 336 335 335 336 339 339 338 339 338 340 345 350 351 351 350 348 352 349 349 348 347 345 344 344 345 343 340 340 340 336 335 336
336 336 338 337 339 339 339 338 337 335 334 332 334 336 336 337 336 336 336 337 338 339 341 348 350 351 351 350 351 351 350 348 346 346 344 342 341 340 340 340 337 336 336
338 338 342 341 343 342 339 338 335 335 334 335 334 335 334 332 333 334 332 335 336 337 336 339 344 347 350 351 353 354 353 350 346 345 343 342 341 340 339 339 338 337 335
342 343 345 345 343 340 339 338 335 335 334 333 333 332 330 329 329 328 330 333 333 334 335 336 339 342 347 350 352 354 353 352 350 347 344 342 340 340 339 339 339 337 335
346 344 344 343 341 339 338 337 334 332 329 329 325 324 324 325 325 327 328 330 333 333 336 338 338 338 338 344 346 349 350 351 351 349 345 341 340 340 340 339 339 338 335
346 346 343 341 342 340 338 334 331 328 327 327 324 319 314 318 323 326 325 326 323 325 328 327 327 327 330 335 339 343 346 347 348 346 343 342 340 340 340 339 339 338 336
348 346 342 341 341 339 336 334 332 328 325 325 324 319 312 311 316 320 321 320 320 321 322 325 327 327 325 326 329 332 337 340 341 345 344 342 342 342 340 339 339 338 336
347 345 343 339 339 337 334 332 332 328 325 321 320 325 322 319 315 314 318 320 320 320 319 321 319 319 319 319 323 327 329 332 335 338 342 343 342 343 341 340 339 337 335
342 343 338 336 335 336 333 332 330 327 325 324 323 324 321 319 317 317 313 319 322 322 320 317 316 316 316 316 315 319 328 328 330 330 332 335 338 339 340 339 339 336 334
336 335 336 335 332 331 330 327 323 323 322 323 324 323 324 322 321 319 317 317 314 317 317 318 314 314 315 314 321 327 326 324 323 323 324 327 329 331 333 335 335 333 332
331 328 328 327 325 324 324 324 321 318 315 315 314 315 316 319 319 315 312 311 309 311 312 312 313 313 315 313 315 322 323 323 320 320 320 322 324 326 329 330 330 330 330
326 326 323 321 320 319 318 315 312 311 310 310 308 308 309 310 309 310 309 307 304 305 308 307 311 313 311 313 318 322 313 319 319 319 318 319 321 323 325 327 328 328 327
318 316 314 313 312 312 310 308 307 306 305 305 304 304 304 305 306 306 306 305 302 300 301 305 304 310 311 313 315 314 312 317 319 318 318 318 319 320 321 322 322 323 324
311 311 310 308 306 305 304 304 303 303 302 301 303 302 302 303 303 304 304 303 303 303 301 307 307 308 309 310 312 313 312 317 316 316 317 317 317 318 319 319 319 320 321
309 308 306 305 304 302 302 300 300 301 300 299 300 301 302 302 302 302 302 302 302 302 303 306 307 308 307 308 309 310 312 311 311 314 316 316 316 315 316 317 317 317 318
306 305 304 303 302 301 299 299 299 299 298 299 300 300 302 306 302 303 305 304 305 306 304 300 303 304 304 306 307 307 309 311 311 313 315 315 313 312 313 313 313 313 313
303 303 302 300 300 299 298 298 298 298 298 299 300 300 302 303 304 302 300 299 299 300 300 298 298 301 302 304 304 306 306 307 310 313 312 312 311 311 311 312 311 311 310
302 301 300 299 298 298 298 298 298 297 297 299 301 303 303 304 299 297 297 296 297 296 296 296 297 298 300 302 303 302 302 304 304 308 310 310 310 310 310 311 313 313 310
302 300 299 297 296 297 297 296 297 296 296 298 300 302 300 301 301 299 297 296 296 295 295 295 295 296 296 298 298 300 299 301 303 304 304 305 306 308 309 311 313 314 311
299 298 296 296 294 297 296 298 298 294 295 296 296 295 296 298 298 298 298 299 298 295 294 294 294 293 295 297 298 298 297 297 296 305 305 303 306 305 308 309 309 309 307
298 296 296 296 295 294 295 296 299 293 294 294 294 293 296 296 296 295 296 297 297 298 298 296 294 294 294 296 297 296 297 298 298 302 303 300 303 302 304 306 305 305 305
297 295 295 295 295 293 294 294 296 292 292 294 294 294 295 294 295 294 293 294 295 296 297 297 296 297 298 299 299 299 299 299 301 302 303 298 303 302 305 305 304 305 304
294 296 295 295 292 289 293 293 292 291 292 293 295 294 295 294 294 294 293 293 293 294 298 299 299 298 297 298 300 302 301 300 298 300 303 301 301 303 305 305 307 306 304
290 295 294 294 293 290 292 292 292 289 289 291 293 295 296 293 293 293 292 293 291 293 294 296 298 300 301 303 304 305 303 299 299 299 304 301 303 304 301 307 306 306 306

GFSMA_sfc_thetae_150.txt.gz
Theta_e
341 341 341 340 342 344 344 343 341 341 340 340 340 339 339 338 337 336 336 343 347 348 350 352 356 357 355 354 352 351 350 349 348 347 347 345 343 345 343 341 343 345 342
338 340 339 340 342 343 343 342 341 339 338 338 338 340 339 339 337 341 342 343 345 347 349 351 352 355 355 354 351 350 349 347 347 346 345 344 344 343 343 345 347 344 342
337 339 339 338 340 342 342 341 340 340 339 339 339 339 339 342 343 343 344 344 343 343 346 349 352 352 353 352 351 351 349 347 347 347 344 344 344 344 346 345 343 342 341
337 338 339 339 340 341 341 340 340 339 339 338 338 341 342 341 341 341 341 340 340 340 341 343 346 349 349 349 351 350 348 348 347 347 346 344 345 345 343 342 342 341 340
338 337 339 341 342 343 344 341 339 339 338 339 340 340 340 338 339 338 337 336 338 340 340 340 341 344 346 348 350 351 350 349 348 347 346 346 345 343 342 341 341 340 340
341 339 343 345 343 343 341 341 340 340 339 337 336 335 334 334 333 332 332 333 335 338 338 339 340 341 344 346 347 348 347 348 347 347 347 345 343 343 342 341 340 340 340
344 342 344 343 341 340 340 340 337 335 334 334 330 330 328 328 329 330 332 333 333 332 332 333 332 332 332 336 340 339 341 344 347 346 346 344 344 344 343 341 340 340 339
345 343 345 341 340 340 339 336 336 334 331 331 328 322 318 323 328 331 332 331 329 328 329 330 330 330 329 327 329 331 333 334 335 340 342 342 343 344 343 342 341 340 339
346 344 343 337 333 338 336 335 335 332 329 330 329 325 319 315 321 328 329 327 327 327 328 327 328 326 327 326 324 327 329 331 333 335 336 338 341 343 344 342 341 340 340
344 339 340 337 339 337 334 334 333 331 330 326 327 329 327 324 319 319 327 327 328 327 327 326 324 325 324 323 324 325 328 328 327 327 327 328 329 333 337 340 340 339 339
340 340 340 338 336 335 333 331 330 329 331 330 329 329 328 327 324 320 315 320 325 326 325 322 323 322 322 321 321 323 327 327 326 324 323 323 324 325 327 328 335 340 340
334 337 335 332 330 328 325 322 322 321 323 321 324 323 323 322 321 318 315 314 313 317 318 319 319 319 319 319 321 322 323 324 323 322 322 322 321 322 324 326 327 329 337
329 329 327 326 323 322 319 317 316 316 315 314 312 314 315 314 313 313 311 309 308 309 312 316 316 315 316 316 317 319 321 320 320 319 319 320 321 321 322 324 325 327 329
327 325 321 318 317 315 313 311 310 310 309 309 308 308 309 309 309 309 308 306 302 305 308 309 313 314 315 315 317 318 317 318 317 317 317 318 320 320 321 322 323 327 327
318 315 314 311 309 309 308 306 305 305 305 305 305 305 305 307 307 308 308 307 305 299 301 308 308 313 314 314 315 316 315 316 317 316 316 316 317 318 319 320 321 321 323
313 311 309 307 305 305 304 304 303 304 303 303 304 305 305 306 307 308 307 307 307 303 300 305 308 310 311 311 312 313 313 314 314 314 316 316 315 316 317 317 318 319 320
311 307 306 304 304 303 303 303 303 303 303 303 304 304 306 307 306 306 306 305 305 305 299 303 305 307 307 307 309 310 311 311 311 313 314 314 314 314 314 314 315 316 318
306 305 304 303 302 301 301 301 301 302 302 302 303 304 305 306 304 303 302 301 300 300 298 296 300 302 303 305 307 307 307 309 309 311 313 313 311 311 311 311 311 312 313
303 302 302 301 300 300 300 300 301 301 301 302 303 304 304 301 300 299 299 298 298 298 297 296 295 299 301 303 303 305 306 306 308 310 310 310 310 310 310 310 310 310 310
301 300 300 299 299 298 299 300 300 300 300 301 302 301 300 300 300 299 298 298 298 296 297 296 295 296 298 300 301 300 300 304 304 307 308 308 309 310 309 310 311 312 310
300 300 298 298 298 298 299 300 298 299 299 298 299 298 299 301 301 300 298 297 297 296 295 294 294 294 295 296 296 299 298 300 301 305 305 306 308 308 308 308 310 311 310
299 298 297 296 295 296 297 300 298 297 298 297 296 297 299 299 298 299 299 299 299 296 295 294 294 293 294 295 297 297 297 296 296 305 303 302 306 305 307 309 308 307 306
298 297 296 295 293 294 295 296 298 296 297 297 296 296 296 297 297 296 297 298 298 298 299 297 294 294 294 296 297 297 298 298 298 302 302 300 304 302 306 308 306 304 304
296 295 294 294 293 294 294 294 295 295 295 297 297 296 295 295 295 295 295 296 297 298 299 298 297 298 299 300 300 302 301 301 303 304 304 299 303 302 307 308 306 306 304
296 295 293 293 292 292 293 293 294 293 294 295 297 296 294 293 293 293 293 294 295 297 298 299 299 298 297 298 300 305 302 300 299 302 305 302 302 304 307 307 308 306 304
293 293 292 292 293 292 293 293 294 293 293 293 296 294 294 292 291 291 293 292 291 293 294 296 298 299 301 302 303 306 304 301 300 300 305 300 303 304 302 309 308 307 305

GFSMA_sfc_thetae_153.txt.gz
Theta_e
346 347 348 347 347 348 348 350 349 348 347 347 346 346 347 349 350 349 348 349 348 349 350 351 355 356 355 354 353 351 352 349 348 348 345 343 343 345 339 340 342 343 342
346 345 348 346 345 348 352 351 350 349 348 348 348 348 349 350 350 349 348 350 349 347 347 347 348 352 353 353 351 350 349 348 347 343 344 345 345 343 344 344 341 344 343
348 346 345 344 346 352 353 352 351 351 350 349 348 350 350 350 349 351 351 350 349 347 345 344 345 347 348 350 351 350 347 347 346 345 345 345 345 344 345 344 344 345 345
349 346 346 347 350 351 350 348 348 348 349 349 349 349 350 351 351 349 349 348 346 342 345 346 344 344 345 346 348 350 349 346 345 346 346 347 347 346 345 344 344 344 344
348 345 346 350 352 351 354 354 351 346 347 347 347 349 350 348 348 345 345 343 342 342 342 342 343 343 343 343 344 344 347 348 348 348 348 349 348 347 345 345 344 344 343
348 346 345 351 353 353 353 352 345 346 345 346 344 344 344 344 342 339 339 339 340 341 340 340 339 338 338 335 335 337 338 342 345 347 347 346 346 346 345 344 343 342 342
348 347 346 350 353 353 348 345 343 343 344 342 339 339 339 338 338 338 339 340 339 337 338 338 337 336 335 335 334 331 333 334 335 339 339 340 344 346 345 344 343 342 341
350 351 351 344 342 338 338 339 341 340 339 338 335 333 327 330 336 337 338 338 338 336 337 337 336 335 333 332 332 330 330 331 333 334 336 335 337 339 343 343 344 343 341
353 350 338 336 334 336 334 339 340 338 336 337 337 333 326 322 329 334 336 336 337 335 335 335 334 332 331 329 329 328 329 329 329 329 328 328 329 330 331 336 338 342 342
337 335 335 335 335 337 337 337 337 337 336 335 337 337 335 331 324 321 329 330 332 330 332 329 328 325 327 326 325 324 327 325 325 326 325 325 325 326 327 328 331 333 339
341 340 339 335 336 337 337 335 335 335 336 335 332 332 332 331 332 323 318 320 323 323 322 323 320 322 322 322 322 325 322 322 323 323 322 322 322 323 324 326 327 329 331
337 338 333 333 330 331 328 327 327 325 324 324 324 322 321 321 320 316 313 312 312 314 316 317 319 319 320 321 322 322 321 321 321 321 321 320 321 322 322 323 324 326 328
332 330 330 326 324 322 320 320 318 317 317 316 316 315 316 315 314 313 311 309 308 312 314 317 318 319 319 319 319 320 318 319 318 318 318 318 318 319 320 321 322 323 325
323 322 320 317 317 317 316 314 313 312 313 313 313 314 312 313 314 313 311 308 306 309 313 313 317 318 317 318 319 318 316 316 316 316 316 316 317 317 318 319 319 320 321
318 316 314 313 313 313 312 313 311 310 311 311 311 313 312 314 314 314 312 310 305 300 303 311 308 315 316 315 316 316 315 316 314 315 314 315 315 317 317 317 318 319 319
314 312 310 311 310 310 311 312 311 311 311 312 312 313 314 313 312 311 311 312 310 304 300 307 308 312 312 311 313 313 314 314 315 314 314 314 313 314 315 316 317 317 318
311 309 309 309 308 308 311 312 312 311 312 313 313 313 311 310 311 311 310 310 308 307 301 304 307 309 308 307 309 312 313 314 314 313 313 312 311 311 312 313 314 314 314
309 308 309 309 308 309 310 311 310 310 311 311 311 310 306 309 310 310 308 307 306 304 300 298 302 304 304 305 306 308 310 311 312 312 312 312 310 310 310 311 311 311 311
310 310 309 308 307 307 309 309 309 309 309 309 308 307 307 308 307 306 304 303 303 303 302 299 299 303 305 305 304 307 307 308 309 311 309 310 310 309 309 309 310 310 309
308 308 308 307 307 308 308 308 308 309 308 307 307 307 306 305 303 302 302 302 302 301 302 301 301 300 300 303 302 300 299 302 306 309 310 308 309 309 309 309 310 310 308
307 307 306 305 306 306 304 307 307 307 307 307 307 306 306 303 303 301 300 301 300 299 300 298 296 297 297 297 296 298 298 300 303 306 305 307 308 308 308 309 311 311 309
307 306 305 305 305 302 297 299 304 307 307 306 306 304 305 303 303 301 300 300 300 298 297 296 295 294 295 296 298 298 298 298 298 308 305 303 307 305 308 308 308 306 305
306 305 304 304 303 302 295 296 299 306 306 305 304 304 303 303 301 301 302 303 304 302 301 299 295 295 295 297 298 298 299 302 302 305 305 301 306 304 308 310 306 305 304
304 303 303 303 303 299 295 295 297 306 305 305 304 303 302 302 298 296 302 305 305 306 302 299 300 299 299 300 300 302 303 306 306 307 307 300 305 304 308 310 307 305 303
302 301 302 302 302 299 294 294 299 304 303 304 302 300 298 299 292 291 302 302 304 304 303 301 299 298 297 298 300 304 301 300 300 303 307 301 304 305 310 310 309 305 303
301 300 299 300 296 297 293 293 297 300 300 300 302 301 294 293 291 290 298 299 299 299 302 304 301 300 301 302 302 304 302 299 300 301 305 300 301 303 302 309 308 307 306

GFSMA_sfc_thetae_156.txt.gz
Theta_e
348 347 348 346 345 346 349 350 348 352 352 351 351 350 350 351 352 351 351 356 351 350 351 352 351 350 352 354 354 353 352 351 350 349 347 347 347 345 345 343 341 341 339
348 344 347 346 344 349 353 354 355 355 353 352 351 353 353 353 353 354 352 353 353 351 351 350 347 349 349 350 353 353 350 349 348 347 346 345 344 344 346 345 343 343 343
352 348 343 343 343 353 357 357 357 355 353 354 354 354 355 356 354 355 354 352 351 351 349 346 347 346 348 348 348 351 350 348 347 345 345 345 345 345 346 346 345 344 344
351 349 343 342 348 354 353 353 353 353 354 353 353 353 353 354 353 354 352 350 347 344 345 349 345 344 344 343 346 347 349 348 348 346 345 346 346 346 345 345 344 345 344
351 348 346 353 359 353 353 357 355 352 349 349 348 350 351 349 349 346 347 344 344 343 343 346 345 344 335 335 337 338 338 341 342 344 345 344 346 347 347 346 345 344 345
352 351 346 355 356 356 358 355 351 348 346 348 343 344 347 346 346 343 341 342 342 343 342 343 342 340 338 333 333 333 334 335 337 338 339 341 342 344 345 345 345 345 345
353 349 347 348 353 344 342 342 341 343 339 343 340 341 339 343 341 341 341 341 341 341 342 342 341 340 339 340 336 332 331 332 333 334 337 334 333 336 340 345 345 344 344
354 352 352 345 345 341 333 338 338 338 339 343 336 335 329 332 336 339 340 339 340 340 337 338 338 338 338 333 335 333 331 330 330 331 331 332 330 330 332 333 337 341 343
353 350 344 343 338 336 329 328 332 337 337 340 342 333 327 323 329 333 336 335 336 334 334 333 331 331 330 328 329 329 330 328 327 327 326 326 327 327 328 329 330 331 333
342 342 340 337 341 331 331 333 334 337 338 336 339 338 340 335 326 323 330 330 330 327 329 323 323 324 326 325 327 328 323 323 323 324 325 325 325 325 325 325 327 328 329
345 344 344 341 334 332 336 335 336 335 335 334 331 330 331 330 331 324 315 316 318 318 319 321 322 324 325 325 325 326 324 322 321 320 321 322 322 323 324 324 325 325 327
344 343 341 342 340 340 338 335 333 329 327 326 325 324 321 317 315 314 311 312 313 317 320 322 322 322 323 324 325 325 322 320 319 319 318 319 319 320 322 323 324 325 326
338 339 340 341 334 331 329 324 325 323 321 320 320 317 317 316 316 315 314 314 313 315 317 320 321 322 320 320 321 322 320 319 318 317 317 316 317 317 318 320 321 323 324
334 334 331 325 321 321 320 323 323 322 322 320 320 321 318 318 319 319 316 313 308 310 313 314 318 318 317 317 318 319 319 318 317 315 315 316 315 315 316 317 318 318 319
327 326 323 318 318 319 320 320 319 318 319 320 321 322 320 320 319 318 316 314 309 305 305 312 313 319 316 316 316 315 316 317 316 316 315 314 314 314 314 314 315 316 317
325 322 320 317 317 318 318 319 319 320 321 319 319 320 318 318 317 317 317 316 315 312 307 312 312 315 315 313 315 315 314 315 315 316 316 314 313 313 313 312 313 314 314
320 317 316 314 315 316 317 317 318 319 319 319 319 317 314 316 316 316 316 315 314 313 308 310 313 314 314 312 312 313 313 315 315 314 315 313 311 311 312 312 312 312 314
318 316 315 316 316 316 318 318 318 317 317 316 316 316 314 314 316 316 314 315 314 314 309 306 311 310 311 312 311 311 312 310 314 313 313 312 310 310 310 309 310 311 311
315 316 316 315 316 316 316 316 316 315 315 315 315 314 314 314 313 312 313 313 312 311 311 306 306 306 306 308 306 309 310 308 312 313 311 310 310 309 310 309 309 309 309
317 316 316 316 316 315 315 315 316 316 316 315 315 314 314 312 309 309 310 312 310 309 309 305 302 300 301 303 304 300 300 305 308 310 310 310 309 309 309 309 310 311 309
315 315 315 314 313 311 306 312 316 316 316 316 316 314 314 307 305 305 305 307 306 306 305 300 298 298 297 298 297 299 299 302 306 307 308 308 308 308 309 310 311 311 308
314 314 314 313 311 305 297 298 305 316 316 315 314 314 313 312 308 305 304 304 304 304 303 299 297 296 297 297 298 298 299 299 299 309 307 308 309 307 309 311 307 306 306
314 313 313 312 309 306 296 296 299 315 315 313 313 311 310 310 307 303 304 308 309 305 304 304 298 296 297 299 299 299 300 301 301 305 306 304 309 306 310 311 306 304 303
313 313 312 312 309 301 295 295 297 314 314 312 311 307 307 308 300 296 303 312 313 312 309 305 303 300 300 300 301 302 303 303 306 307 305 299 308 305 310 312 306 304 302
311 311 310 310 308 301 293 294 300 311 310 310 309 307 303 302 292 292 304 307 309 310 307 304 301 299 297 298 300 303 301 299 298 302 304 300 304 303 307 311 308 305 303
309 308 307 306 299 303 292 292 295 303 306 303 308 306 292 293 291 291 300 303 303 304 307 305 306 307 305 304 302 303 302 298 298 300 303 297 302 301 300 311 306 303 305

GFSMA_sfc_thetae_159.txt.gz
Theta_e
354 348 347 346 347 343 345 345 345 346 348 351 351 349 349 350 349 347 349 359 354 352 354 354 353 352 351 352 352 352 353 352 351 351 349 348 347 346 347 343 344 342 341
351 346 347 347 344 344 347 349 349 350 351 350 348 353 353 353 350 351 348 350 356 354 354 354 353 348 346 348 350 351 351 351 350 349 346 345 345 345 345 345 344 343 344
354 353 344 344 343 349 355 356 355 354 351 353 354 354 353 357 350 351 351 348 347 351 354 351 349 346 345 344 344 347 349 348 348 347 345 345 345 344 344 344 345 346 345
352 350 342 343 343 351 352 352 356 354 355 352 351 350 351 350 352 353 348 349 345 342 347 351 348 346 343 339 337 338 341 341 341 341 343 344 344 345 345 345 346 346 345
350 349 343 349 358 351 356 359 356 353 352 345 345 344 347 348 347 343 346 344 344 343 342 347 345 347 345 338 336 336 336 338 338 338 339 340 342 342 343 345 346 347 345
351 351 346 357 358 355 345 345 347 348 343 340 336 337 342 344 343 342 342 341 342 343 344 344 345 342 344 339 341 333 335 335 336 335 336 336 334 334 337 340 343 345 344
354 354 345 352 351 347 343 345 344 340 336 340 339 338 339 345 344 342 344 342 343 341 344 341 342 337 338 340 340 334 336 332 331 331 333 332 330 331 331 332 334 337 340
354 351 349 352 351 346 343 341 341 334 334 337 335 335 328 332 342 339 339 339 341 337 334 334 333 331 332 330 330 333 332 329 329 328 327 327 326 327 328 329 330 331 333
355 356 354 350 348 345 338 335 337 338 334 342 342 336 327 323 330 336 337 336 335 330 326 326 328 328 330 328 329 330 331 325 326 327 326 325 325 325 326 326 327 327 329
356 352 349 345 342 340 338 337 338 340 338 336 339 339 340 336 325 322 331 325 323 320 326 325 326 328 330 327 331 331 324 323 323 324 323 323 324 326 325 325 325 326 326
348 342 342 343 341 339 338 340 340 339 337 334 332 331 329 325 326 316 311 314 319 323 324 324 327 327 329 329 325 326 324 323 322 320 320 321 322 323 323 323 324 325 326
343 344 342 340 342 341 338 338 337 336 332 331 327 324 319 316 314 313 311 316 317 319 321 321 323 324 324 323 322 323 321 320 320 319 318 318 319 319 320 321 323 324 326
338 342 343 340 336 336 333 331 332 330 327 324 324 320 319 317 319 318 317 315 313 315 316 319 319 321 321 320 320 321 320 319 317 317 317 317 318 317 317 318 319 321 323
337 335 335 333 330 329 329 329 327 324 324 322 323 323 322 322 321 320 317 314 310 312 315 321 319 319 320 318 319 319 317 317 317 315 315 317 317 315 315 315 315 315 318
334 332 328 326 326 327 326 326 322 323 324 324 325 324 322 321 320 320 319 317 312 308 310 315 314 322 318 317 316 316 316 316 316 316 316 315 316 315 314 314 314 314 314
331 326 324 324 323 324 324 324 322 324 324 322 321 321 320 319 319 320 318 317 316 313 308 314 315 318 319 316 316 315 315 316 315 315 316 315 314 313 313 312 313 312 313
327 323 320 321 321 321 322 323 323 322 322 322 321 320 319 320 318 318 317 317 315 315 310 313 315 317 317 315 314 314 314 315 315 314 315 314 313 311 311 311 311 311 311
324 323 321 320 320 321 323 321 320 320 319 318 319 318 317 317 317 318 315 317 316 316 311 309 313 312 312 311 311 309 311 311 312 313 314 313 312 310 310 310 310 310 310
323 321 320 319 319 320 320 320 319 319 319 318 318 317 316 315 314 312 313 313 313 312 312 309 309 310 308 307 305 306 307 308 309 312 312 312 311 310 310 310 309 309 308
319 320 320 319 319 318 319 319 320 320 319 318 318 317 316 313 311 310 310 311 312 310 311 309 308 305 303 305 303 300 300 304 303 307 312 312 311 311 310 310 311 311 309
319 319 318 316 314 311 306 311 318 319 318 317 317 317 316 310 310 307 306 308 310 309 308 306 304 301 299 298 298 300 299 300 302 307 308 308 310 310 310 311 308 308 306
319 318 317 315 311 305 298 299 305 318 318 317 316 315 316 313 308 304 305 304 305 306 306 305 302 300 299 298 299 298 298 298 298 307 305 306 311 310 310 311 306 304 303
318 317 315 313 307 303 296 296 299 318 317 316 315 311 309 309 302 301 303 307 311 308 306 305 303 301 299 299 299 298 298 299 299 303 303 302 309 305 309 312 306 304 302
316 316 315 313 307 297 294 294 297 316 316 315 314 311 307 305 298 296 303 310 311 313 311 307 305 304 304 303 301 300 299 301 303 306 302 298 304 304 308 310 305 303 301
315 314 313 312 309 299 293 293 300 313 312 311 312 304 303 301 293 292 302 306 307 308 307 304 301 299 298 298 300 300 299 299 297 301 304 298 301 299 303 308 307 303 302
313 311 309 307 301 304 291 292 294 306 306 306 309 305 295 296 292 291 299 303 301 303 306 309 303 302 299 301 301 301 301 299 298 298 303 297 298 297 296 307 304 302 302

GFSMA_sfc_thetae_162.txt.gz
Theta_e
353 354 352 351 347 347 347 347 346 348 347 346 348 348 348 349 351 348 346 358 357 355 357 357 356 355 351 350 350 350 350 350 351 350 349 348 348 347 346 346 344 344 344
354 351 353 350 351 349 349 353 352 349 348 349 353 352 355 354 352 350 350 348 356 356 355 356 357 351 347 349 348 347 347 345 345 345 345 346 346 345 346 346 345 345 343
355 355 349 350 349 349 355 355 356 353 353 356 354 351 351 350 350 349 349 347 346 350 355 355 353 349 347 346 342 343 343 342 341 341 340 341 342 342 344 346 346 345 343
354 354 350 348 350 353 356 357 357 355 352 350 349 346 347 346 347 347 347 346 343 342 347 353 349 346 349 347 340 341 342 340 340 339 338 338 339 338 338 338 341 344 344
354 352 351 353 355 357 356 354 352 350 347 341 338 337 341 336 338 344 343 344 343 341 342 347 346 346 348 346 340 340 336 339 338 337 336 334 333 333 333 333 334 337 340
355 356 357 361 357 351 349 349 348 345 341 338 335 336 336 333 343 345 340 340 340 340 334 334 336 333 341 344 343 335 336 337 334 332 331 329 329 329 329 329 331 332 333
356 356 355 356 354 350 347 347 346 342 337 335 333 332 334 338 339 338 339 336 336 329 331 321 324 322 323 332 333 336 334 332 331 330 329 328 327 327 327 327 328 329 329
358 356 354 351 351 346 344 342 339 337 336 336 330 331 326 329 333 334 335 335 327 325 319 320 321 324 323 324 326 335 328 328 328 328 326 326 325 325 325 326 327 328 327
355 357 353 348 348 345 337 336 339 337 334 337 340 334 325 322 326 332 331 322 326 318 318 322 322 323 324 325 328 325 325 324 325 325 324 324 323 324 324 324 325 326 326
346 344 344 344 343 338 338 337 339 338 337 332 335 335 334 330 321 316 319 317 319 318 323 319 321 321 321 322 326 328 325 322 323 322 322 322 323 322 323 323 323 324 324
340 341 344 343 340 338 341 337 335 334 332 330 327 324 325 320 320 314 308 311 318 320 318 318 318 318 320 320 318 320 323 322 322 320 319 320 320 321 321 321 320 322 324
341 341 341 341 337 336 335 335 335 331 328 327 323 321 318 315 313 313 312 313 312 314 316 317 318 318 318 316 319 322 321 320 319 318 317 317 319 320 320 320 320 320 321
340 341 340 337 334 334 332 333 330 328 324 323 322 320 321 320 319 317 314 312 310 313 314 318 317 317 317 316 315 320 319 318 317 316 316 317 318 318 317 318 318 318 318
335 335 332 330 330 330 328 328 324 323 325 324 323 323 320 319 317 317 315 312 308 309 312 313 316 315 317 315 316 319 313 316 316 315 315 316 317 316 315 315 315 315 314
330 330 328 327 327 326 326 326 323 324 325 324 322 320 318 318 318 317 317 314 311 305 306 311 311 314 315 314 314 312 311 314 316 315 316 315 316 315 314 313 313 313 314
327 326 326 324 324 323 324 325 324 325 323 322 321 320 318 317 316 317 315 314 313 310 305 310 311 313 313 312 312 309 308 312 314 314 314 314 314 314 314 313 312 313 313
324 323 322 322 322 323 325 326 324 321 320 320 319 318 316 316 314 314 313 313 312 311 306 309 311 312 309 307 306 307 307 307 307 311 312 312 312 312 312 312 312 312 312
324 323 322 321 321 322 323 321 319 319 318 317 317 316 314 315 312 311 310 310 311 310 308 305 307 308 306 305 305 304 305 305 305 309 311 311 311 311 311 311 310 311 310
322 321 321 320 319 320 320 321 320 319 318 317 316 316 313 312 309 308 307 307 309 309 309 306 305 307 306 305 302 303 303 303 305 309 309 310 310 310 310 310 310 309 307
320 320 319 316 314 312 313 317 320 318 317 317 317 317 314 310 306 304 303 305 307 307 308 307 305 304 303 303 302 299 299 301 301 304 308 309 309 310 311 311 310 308 305
319 317 314 311 309 306 302 304 312 318 316 315 316 314 312 308 305 303 302 301 303 306 307 305 302 302 301 300 298 300 298 299 301 304 304 305 307 308 308 310 307 306 303
317 315 312 308 305 300 297 299 302 313 317 315 312 310 311 305 300 301 302 305 307 307 305 304 301 298 299 300 300 299 298 297 295 304 302 302 306 304 306 309 305 303 302
316 312 308 303 297 296 295 296 300 310 316 315 313 307 305 303 298 297 299 308 307 307 307 305 298 298 297 297 298 297 297 297 298 302 301 299 302 300 303 306 304 303 302
315 312 309 303 298 294 294 294 297 312 314 314 306 304 301 300 296 295 298 303 304 305 304 304 301 300 299 298 299 298 298 300 302 302 302 295 300 298 301 306 304 302 302
312 310 310 307 298 294 294 294 299 308 307 308 301 299 299 298 294 294 297 300 300 301 304 304 301 299 297 297 299 299 297 297 298 299 301 297 298 296 298 303 303 303 302
310 307 303 304 300 297 293 293 296 297 301 304 304 301 298 295 293 292 295 299 297 299 302 304 303 302 301 301 301 300 299 297 298 297 300 296 296 295 292 301 299 300 301

GFSMA_sfc_thetae_165.txt.gz
Theta_e
338 344 346 344 342 341 340 338 339 340 341 339 338 344 345 346 346 345 345 356 355 354 356 357 357 355 350 349 349 349 348 346 345 343 342 342 343 343 343 346 345 345 345
340 342 341 339 341 340 340 338 338 340 337 343 348 348 347 345 345 342 344 344 355 355 355 356 356 351 349 351 349 346 343 342 340 340 340 339 339 339 338 339 340 343 344
342 340 337 338 338 338 337 343 343 345 345 346 342 341 342 340 341 342 339 343 342 345 352 352 351 348 350 350 349 344 343 342 339 339 337 338 335 335 334 335 335 335 337
344 341 337 338 338 342 346 348 345 342 339 336 334 334 336 338 335 333 341 339 336 336 340 346 346 346 343 344 345 343 340 339 339 337 334 333 332 331 330 331 331 331 332
344 339 339 341 347 346 346 344 337 338 333 331 334 336 334 335 330 343 340 334 334 329 328 331 337 335 337 339 338 335 337 337 335 332 331 330 329 329 329 329 329 329 329
346 343 349 347 346 343 341 340 336 333 330 329 333 334 333 334 337 336 332 334 324 324 319 316 319 320 332 336 335 336 334 332 331 330 328 328 328 327 327 327 327 327 328
345 342 349 345 343 340 338 337 336 331 330 331 328 329 330 330 335 331 329 323 321 317 314 316 317 319 321 332 332 331 329 328 328 327 326 324 325 326 326 325 326 325 326
346 344 345 342 340 337 333 331 331 328 330 331 324 324 319 323 329 329 320 316 316 315 316 318 317 318 319 321 326 328 327 326 326 325 323 322 322 323 323 323 324 325 326
347 343 343 339 335 332 330 330 329 328 325 328 331 324 317 315 319 323 315 313 313 312 313 314 317 316 315 318 320 320 324 323 324 324 322 320 322 322 322 322 323 323 323
342 342 339 335 332 331 329 329 332 328 326 322 323 321 320 316 310 306 310 310 314 314 313 314 314 316 315 314 319 321 322 321 322 321 321 320 321 321 322 322 322 322 321
340 340 336 334 332 331 330 328 325 323 321 317 315 313 311 310 309 306 303 309 312 312 313 313 312 314 314 313 312 317 322 321 318 318 318 319 320 321 321 321 320 320 320
337 337 334 332 330 328 327 326 322 318 318 315 314 313 311 309 308 307 304 305 306 309 311 312 312 311 312 312 317 319 319 318 318 317 317 317 318 319 319 319 319 319 320
334 332 331 327 326 325 324 319 317 316 316 315 315 314 313 310 310 309 307 305 304 307 307 309 311 311 314 311 312 316 315 313 313 315 316 316 316 317 317 318 318 317 318
330 326 324 324 324 320 319 318 317 317 316 316 313 312 311 310 310 310 307 303 303 303 306 305 312 311 311 310 311 314 308 310 312 313 313 313 313 314 315 316 316 316 316
327 323 322 320 319 319 317 317 317 316 315 314 312 312 310 310 309 310 307 306 303 299 302 304 306 309 311 308 308 307 305 310 310 310 310 312 312 312 313 314 314 314 315
323 320 318 317 316 316 316 316 315 315 313 313 312 310 309 308 309 308 308 306 305 304 301 305 306 307 309 307 308 305 304 308 309 309 309 311 312 312 313 313 313 313 314
319 317 316 316 316 317 315 313 313 314 312 311 310 309 308 307 306 306 305 304 304 303 301 305 307 307 306 304 304 304 304 304 305 308 309 310 310 311 311 312 313 312 311
316 316 316 316 316 315 313 313 313 313 311 310 310 308 307 307 302 301 301 300 302 304 305 303 305 304 303 304 304 302 304 305 304 307 309 310 310 309 310 311 311 310 307
314 315 314 312 312 311 313 313 313 312 311 310 310 306 304 301 298 298 297 298 301 304 305 305 303 303 302 303 303 303 303 303 305 308 307 309 308 309 310 309 310 308 305
310 308 306 306 304 303 304 307 312 310 312 310 309 305 303 299 296 296 297 296 299 301 306 303 301 299 299 300 301 299 298 301 301 304 307 307 308 308 307 309 308 307 304
307 305 303 301 299 298 299 300 305 310 310 305 304 306 302 301 302 301 298 298 302 303 301 302 298 298 297 296 295 297 296 298 300 303 303 303 304 303 304 306 305 306 303
304 300 296 295 293 296 297 301 302 307 308 304 301 299 299 299 297 299 302 306 304 300 299 299 298 296 296 297 297 296 296 295 295 303 302 301 303 301 302 304 304 303 302
300 296 293 291 289 291 296 298 303 306 305 300 297 296 297 298 294 293 297 302 302 303 304 300 298 297 297 298 297 296 296 296 296 301 301 298 300 299 300 303 304 302 302
299 294 291 290 291 294 297 299 303 302 297 296 295 294 293 293 292 293 294 297 297 298 299 303 300 300 299 300 300 299 298 298 300 302 300 294 298 297 299 301 302 302 301
302 295 293 292 290 291 295 296 294 297 298 294 294 294 293 291 294 294 293 293 294 296 301 303 301 299 297 298 300 301 298 297 295 297 299 295 297 295 297 299 299 301 300
298 298 296 294 295 290 293 293 293 292 293 293 292 292 297 293 294 294 291 291 291 294 295 297 298 299 301 302 302 302 300 296 296 296 299 295 296 294 292 298 297 298 299